| time (UTC) | temp F | wind direction | speed MPH | gust MPH | rain 1hr in | rain 24hr in | rain mn in | humidity % | barometer mb |
| 20260905144104 | 51 | 128 | 1.0 | 3.0 | 0.00 | 0.00 | 0.00 | 61 | 1014.1 |
| 20260905144004 | 51 | 128 | 1.0 | 3.0 | 0.00 | 0.00 | 0.00 | 62 | 1014.2 |
| 20260905143905 | 51 | 0 | 0.0 | 3.0 | 0.00 | 0.00 | 0.00 | 62 | 1014.2 |
| 20260905143804 | 51 | 0 | 0.0 | 3.0 | 0.00 | 0.00 | 0.00 | 62 | 1014.2 |
| 20260905143704 | 51 | 0 | 0.0 | 3.0 | 0.00 | 0.00 | 0.00 | 62 | 1014.2 |
| 20260905143604 | 51 | 0 | 0.0 | 3.0 | 0.00 | 0.00 | 0.00 | 63 | 1014.1 |
| 20260905143504 | 51 | 0 | 0.0 | 3.0 | 0.00 | 0.00 | 0.00 | 63 | 1014.2 |
| 20260905143404 | 50 | 0 | 0.0 | 3.0 | 0.00 | 0.00 | 0.00 | 63 | 1014.1 |
| 20260905142904 | 49 | 0 | 0.0 | 2.0 | 0.00 | 0.00 | 0.00 | 67 | 1014.2 |
| 20260905142803 | 49 | 0 | 0.0 | 2.0 | 0.00 | 0.00 | 0.00 | 68 | 1014.1 |
| 20260905142704 | 49 | 0 | 0.0 | 2.0 | 0.00 | 0.00 | 0.00 | 68 | 1014.1 |
| 20260905142604 | 48 | 0 | 0.0 | 2.0 | 0.00 | 0.00 | 0.00 | 69 | 1014.1 |
| 20260905142504 | 48 | 0 | 0.0 | 2.0 | 0.00 | 0.00 | 0.00 | 69 | 1014.1 |
| 20260905142404 | 48 | 0 | 0.0 | 2.0 | 0.00 | 0.00 | 0.00 | 70 | 1014.0 |
| 20260905142306 | 47 | 0 | 0.0 | 2.0 | 0.00 | 0.00 | 0.00 | 70 | 1014.0 |
| 20260905142204 | 47 | 0 | 0.0 | 2.0 | 0.00 | 0.00 | 0.00 | 70 | 1014.0 |
| 20260905142104 | 47 | 0 | 0.0 | 2.0 | 0.00 | 0.00 | 0.00 | 70 | 1014.1 |
| 20260905142004 | 46 | 0 | 0.0 | 2.0 | 0.00 | 0.00 | 0.00 | 70 | 1014.0 |
| 20260905141904 | 46 | 0 | 0.0 | 1.0 | 0.00 | 0.00 | 0.00 | 71 | 1014.1 |
| 20260905141804 | 46 | 0 | 0.0 | 1.0 | 0.00 | 0.00 | 0.00 | 71 | 1014.0 |
| 20260905141704 | 46 | 0 | 0.0 | 1.0 | 0.00 | 0.00 | 0.00 | 71 | 1014.0 |
| 20260905141604 | 45 | 0 | 0.0 | 1.0 | 0.00 | 0.00 | 0.00 | 71 | 1014.0 |
| 20260905141504 | 45 | 0 | 0.0 | 1.0 | 0.00 | 0.00 | 0.00 | 71 | 1014.1 |
| 20260905141404 | 45 | 0 | 0.0 | 1.0 | 0.00 | 0.00 | 0.00 | 71 | 1014.0 |
| 20260905141304 | 44 | 0 | 0.0 | 1.0 | 0.00 | 0.00 | 0.00 | 73 | 1014.0 |
| 20260905141204 | 44 | 0 | 0.0 | 2.0 | 0.00 | 0.00 | 0.00 | 73 | 1013.9 |
| 20260905141104 | 44 | 0 | 0.0 | 2.0 | 0.00 | 0.00 | 0.00 | 73 | 1013.9 |
| 20260905141004 | 44 | 0 | 0.0 | 2.0 | 0.00 | 0.00 | 0.00 | 73 | 1013.9 |
| 20260905140904 | 44 | 0 | 0.0 | 2.0 | 0.00 | 0.00 | 0.00 | 73 | 1013.9 |
| 20260905140404 | 43 | 0 | 0.0 | 2.0 | 0.00 | 0.00 | 0.00 | 74 | 1013.8 |
| 20260905140303 | 43 | 96 | 1.0 | 2.0 | 0.00 | 0.00 | 0.00 | 74 | 1013.9 |
| 20260905140205 | 42 | 92 | 2.0 | 2.0 | 0.00 | 0.00 | 0.00 | 74 | 1013.8 |
| 20260905140104 | 42 | 92 | 1.0 | 2.0 | 0.00 | 0.00 | 0.00 | 74 | 1013.7 |
| 20260905140004 | 42 | 0 | 0.0 | 2.0 | 0.00 | 0.00 | 0.00 | 74 | 1013.8 |
| 20260905135903 | 42 | 0 | 0.0 | 2.0 | 0.00 | 0.00 | 0.00 | 74 | 1013.7 |
| 20260905135804 | 42 | 0 | 0.0 | 2.0 | 0.00 | 0.00 | 0.00 | 74 | 1013.8 |
| 20260905135704 | 42 | 90 | 2.0 | 2.0 | 0.00 | 0.00 | 0.00 | 74 | 1013.7 |
| 20260905135604 | 41 | 90 | 2.0 | 2.0 | 0.00 | 0.00 | 0.00 | 74 | 1013.7 |
| 20260905135504 | 41 | 90 | 1.0 | 2.0 | 0.00 | 0.00 | 0.00 | 74 | 1013.7 |
| 20260905135404 | 41 | 0 | 0.0 | 2.0 | 0.00 | 0.00 | 0.00 | 74 | 1013.6 |
| 20260905135203 | 41 | 98 | 1.0 | 2.0 | 0.00 | 0.00 | 0.00 | 75 | 1013.7 |
| 20260905135104 | 41 | 124 | 2.0 | 3.0 | 0.00 | 0.00 | 0.00 | 74 | 1013.7 |
| 20260905135004 | 41 | 0 | 0.0 | 3.0 | 0.00 | 0.00 | 0.00 | 74 | 1013.6 |
| 20260905134904 | 41 | 0 | 0.0 | 3.0 | 0.00 | 0.00 | 0.00 | 74 | 1013.8 |
| 20260905134804 | 41 | 0 | 0.0 | 3.0 | 0.00 | 0.00 | 0.00 | 74 | 1013.6 |
| 20260905134704 | 41 | 0 | 0.0 | 3.0 | 0.00 | 0.00 | 0.00 | 74 | 1013.7 |
| 20260905134604 | 41 | 0 | 0.0 | 3.0 | 0.00 | 0.00 | 0.00 | 74 | 1013.6 |
| 20260905134504 | 41 | 0 | 0.0 | 3.0 | 0.00 | 0.00 | 0.00 | 74 | 1013.7 |
| 20260905134404 | 41 | 169 | 1.0 | 3.0 | 0.00 | 0.00 | 0.00 | 74 | 1013.6 |
| 20260905134304 | 41 | 0 | 0.0 | 3.0 | 0.00 | 0.00 | 0.00 | 74 | 1013.8 |
| 20260905134205 | 41 | 0 | 0.0 | 3.0 | 0.00 | 0.00 | 0.00 | 74 | 1013.6 |
| 20260905134104 | 41 | 160 | 1.0 | 3.0 | 0.00 | 0.00 | 0.00 | 74 | 1013.6 |
| 20260905134004 | 41 | 0 | 0.0 | 3.0 | 0.00 | 0.00 | 0.00 | 74 | 1013.7 |
| 20260905133905 | 41 | 0 | 0.0 | 3.0 | 0.00 | 0.00 | 0.00 | 74 | 1013.6 |
| 20260905133804 | 41 | 0 | 0.0 | 3.0 | 0.00 | 0.00 | 0.00 | 74 | 1013.7 |
| 20260905133704 | 41 | 0 | 0.0 | 3.0 | 0.00 | 0.00 | 0.00 | 74 | 1013.7 |
| 20260905133605 | 41 | 147 | 1.0 | 3.0 | 0.00 | 0.00 | 0.00 | 74 | 1013.7 |
| 20260905133504 | 41 | 0 | 0.0 | 2.0 | 0.00 | 0.00 | 0.00 | 74 | 1013.7 |
| 20260905133004 | 41 | 0 | 0.0 | 2.0 | 0.00 | 0.00 | 0.00 | 74 | 1013.6 |
| 20260905132904 | 41 | 0 | 0.0 | 3.0 | 0.00 | 0.00 | 0.00 | 73 | 1013.6 |
| 20260905132804 | 41 | 0 | 0.0 | 3.0 | 0.00 | 0.00 | 0.00 | 73 | 1013.6 |
| 20260905132704 | 41 | 0 | 0.0 | 3.0 | 0.00 | 0.00 | 0.00 | 73 | 1013.6 |
| 20260905132604 | 41 | 0 | 0.0 | 3.0 | 0.00 | 0.00 | 0.00 | 73 | 1013.6 |
| 20260905132504 | 41 | 0 | 0.0 | 3.0 | 0.00 | 0.00 | 0.00 | 73 | 1013.6 |
| 20260905132104 | 41 | 0 | 0.0 | 4.0 | 0.00 | 0.00 | 0.00 | 73 | 1013.5 |
| 20260905132004 | 41 | 93 | 2.0 | 4.0 | 0.00 | 0.00 | 0.00 | 73 | 1013.5 |
| 20260905131904 | 41 | 90 | 2.0 | 4.0 | 0.00 | 0.00 | 0.00 | 73 | 1013.5 |
| 20260905131703 | 41 | 90 | 2.0 | 4.0 | 0.00 | 0.00 | 0.00 | 73 | 1013.5 |
| 20260905131604 | 40 | 90 | 2.0 | 4.0 | 0.00 | 0.00 | 0.00 | 72 | 1013.5 |
| 20260905131504 | 40 | 90 | 2.0 | 4.0 | 0.00 | 0.00 | 0.00 | 72 | 1013.4 |
| 20260905131404 | 41 | 90 | 2.0 | 4.0 | 0.00 | 0.00 | 0.00 | 72 | 1013.4 |
| 20260905131304 | 40 | 90 | 3.0 | 4.0 | 0.00 | 0.00 | 0.00 | 72 | 1013.4 |
| 20260905131204 | 40 | 90 | 3.0 | 4.0 | 0.00 | 0.00 | 0.00 | 72 | 1013.5 |
| 20260905131104 | 40 | 90 | 2.0 | 3.0 | 0.00 | 0.00 | 0.00 | 71 | 1013.5 |
| 20260905131004 | 40 | 90 | 2.0 | 3.0 | 0.00 | 0.00 | 0.00 | 71 | 1013.4 |
| 20260905130904 | 40 | 90 | 2.0 | 3.0 | 0.00 | 0.00 | 0.00 | 71 | 1013.4 |
| 20260905130805 | 40 | 90 | 1.0 | 2.0 | 0.00 | 0.00 | 0.00 | 71 | 1013.4 |
| 20260905130704 | 40 | 90 | 1.0 | 3.0 | 0.00 | 0.00 | 0.00 | 72 | 1013.4 |
| 20260905130604 | 40 | 90 | 1.0 | 3.0 | 0.00 | 0.00 | 0.00 | 72 | 1013.3 |
| 20260905130504 | 40 | 0 | 0.0 | 3.0 | 0.00 | 0.00 | 0.00 | 72 | 1013.3 |
| 20260905130404 | 40 | 90 | 1.0 | 3.0 | 0.00 | 0.00 | 0.00 | 72 | 1013.4 |
| 20260905130304 | 40 | 90 | 1.0 | 3.0 | 0.00 | 0.00 | 0.00 | 72 | 1013.4 |
| 20260905130204 | 40 | 90 | 1.0 | 3.0 | 0.00 | 0.00 | 0.00 | 72 | 1013.4 |
| 20260905130104 | 40 | 90 | 1.0 | 3.0 | 0.00 | 0.00 | 0.00 | 72 | 1013.3 |
| 20260905130004 | 40 | 90 | 2.0 | 3.0 | 0.00 | 0.00 | 0.00 | 72 | 1013.3 |
| 20260905125904 | 40 | 90 | 2.0 | 3.0 | 0.00 | 0.00 | 0.00 | 72 | 1013.3 |
| 20260905125804 | 40 | 90 | 2.0 | 3.0 | 0.00 | 0.00 | 0.00 | 72 | 1013.4 |
| 20260905125704 | 40 | 90 | 2.0 | 3.0 | 0.00 | 0.00 | 0.00 | 71 | 1013.3 |
| 20260905125604 | 40 | 90 | 2.0 | 3.0 | 0.00 | 0.00 | 0.00 | 71 | 1013.4 |
| 20260905125504 | 40 | 90 | 2.0 | 3.0 | 0.00 | 0.00 | 0.00 | 71 | 1013.3 |
| 20260905125404 | 40 | 90 | 2.0 | 3.0 | 0.00 | 0.00 | 0.00 | 71 | 1013.4 |
| 20260905125306 | 40 | 90 | 2.0 | 3.0 | 0.00 | 0.00 | 0.00 | 70 | 1013.4 |
| 20260905125204 | 40 | 90 | 2.0 | 3.0 | 0.00 | 0.00 | 0.00 | 70 | 1013.4 |
| 20260905125104 | 40 | 95 | 2.0 | 3.0 | 0.00 | 0.00 | 0.00 | 69 | 1013.3 |
| 20260905125004 | 40 | 106 | 2.0 | 3.0 | 0.00 | 0.00 | 0.00 | 69 | 1013.3 |
| 20260905124904 | 40 | 105 | 2.0 | 4.0 | 0.00 | 0.00 | 0.00 | 69 | 1013.3 |
| 20260905124804 | 40 | 104 | 1.0 | 4.0 | 0.00 | 0.00 | 0.00 | 69 | 1013.4 |
| 20260905124704 | 40 | 105 | 1.0 | 4.0 | 0.00 | 0.00 | 0.00 | 69 | 1013.3 |
| 20260905124603 | 40 | 108 | 1.0 | 4.0 | 0.00 | 0.00 | 0.00 | 69 | 1013.3 |
| 20260905124504 | 41 | 113 | 1.0 | 4.0 | 0.00 | 0.00 | 0.00 | 69 | 1013.4 |
| 20260905124304 | 41 | 0 | 0.0 | 4.0 | 0.00 | 0.00 | 0.00 | 70 | 1013.3 |
| 20260905124204 | 41 | 0 | 0.0 | 4.0 | 0.00 | 0.00 | 0.00 | 70 | 1013.3 |
| 20260905124104 | 41 | 0 | 0.0 | 4.0 | 0.00 | 0.00 | 0.00 | 70 | 1013.3 |
| 20260905124004 | 41 | 97 | 2.0 | 4.0 | 0.00 | 0.00 | 0.00 | 70 | 1013.3 |
| 20260905123904 | 41 | 103 | 2.0 | 3.0 | 0.00 | 0.00 | 0.00 | 70 | 1013.3 |
| 20260905123804 | 41 | 0 | 0.0 | 3.0 | 0.00 | 0.00 | 0.00 | 70 | 1013.3 |
| 20260905123304 | 42 | 0 | 0.0 | 3.0 | 0.00 | 0.00 | 0.00 | 70 | 1013.3 |
| 20260905123104 | 42 | 0 | 0.0 | 2.0 | 0.00 | 0.00 | 0.00 | 72 | 1013.3 |
| 20260905123004 | 42 | 0 | 0.0 | 2.0 | 0.00 | 0.00 | 0.00 | 73 | 1013.3 |
| 20260905122904 | 42 | 0 | 0.0 | 2.0 | 0.00 | 0.00 | 0.00 | 73 | 1013.3 |
| 20260905122804 | 42 | 0 | 0.0 | 2.0 | 0.00 | 0.00 | 0.00 | 73 | 1013.3 |
| 20260905122704 | 42 | 0 | 0.0 | 2.0 | 0.00 | 0.00 | 0.00 | 72 | 1013.3 |
| 20260905122604 | 42 | 0 | 0.0 | 2.0 | 0.00 | 0.00 | 0.00 | 72 | 1013.3 |
| 20260905122504 | 42 | 0 | 0.0 | 2.0 | 0.00 | 0.00 | 0.00 | 72 | 1013.3 |
| 20260905122404 | 42 | 0 | 0.0 | 1.0 | 0.00 | 0.00 | 0.00 | 71 | 1013.3 |
| 20260905122306 | 42 | 0 | 0.0 | 0.0 | 0.00 | 0.00 | 0.00 | 71 | 1013.2 |
| 20260905122204 | 42 | 0 | 0.0 | 0.0 | 0.00 | 0.00 | 0.00 | 71 | 1013.3 |
| 20260905122003 | 42 | 0 | 0.0 | 0.0 | 0.00 | 0.00 | 0.00 | 71 | 1013.3 |
| 20260905121904 | 42 | 0 | 0.0 | 1.0 | 0.00 | 0.00 | 0.00 | 71 | 1013.3 |
| 20260905121804 | 42 | 0 | 0.0 | 1.0 | 0.00 | 0.00 | 0.00 | 71 | 1013.3 |
| 20260905121704 | 42 | 0 | 0.0 | 2.0 | 0.00 | 0.00 | 0.00 | 72 | 1013.3 |
| 20260905121603 | 42 | 0 | 0.0 | 2.0 | 0.00 | 0.00 | 0.00 | 71 | 1013.5 |
| 20260905121504 | 42 | 0 | 0.0 | 2.0 | 0.00 | 0.00 | 0.00 | 71 | 1013.4 |
| 20260905121404 | 42 | 0 | 0.0 | 2.0 | 0.00 | 0.00 | 0.00 | 70 | 1013.5 |
| 20260905121304 | 42 | 0 | 0.0 | 2.0 | 0.00 | 0.00 | 0.00 | 70 | 1013.5 |
| 20260905121204 | 42 | 0 | 0.0 | 2.0 | 0.00 | 0.00 | 0.00 | 69 | 1013.4 |
| 20260905121104 | 42 | 0 | 0.0 | 2.0 | 0.00 | 0.00 | 0.00 | 69 | 1013.4 |
| 20260905121005 | 42 | 0 | 0.0 | 2.0 | 0.00 | 0.00 | 0.00 | 69 | 1013.5 |
| 20260905120404 | 42 | 0 | 0.0 | 2.0 | 0.00 | 0.00 | 0.00 | 69 | 1013.5 |
| 20260905120304 | 42 | 0 | 0.0 | 2.0 | 0.00 | 0.00 | 0.00 | 69 | 1013.4 |
| 20260905120204 | 42 | 0 | 0.0 | 2.0 | 0.00 | 0.00 | 0.00 | 69 | 1013.3 |
| 20260905120104 | 42 | 0 | 0.0 | 2.0 | 0.00 | 0.00 | 0.00 | 69 | 1013.4 |
| 20260905120004 | 42 | 0 | 0.0 | 2.0 | 0.00 | 0.00 | 0.00 | 69 | 1013.5 |
| 20260905115904 | 42 | 0 | 0.0 | 2.0 | 0.00 | 0.00 | 0.00 | 69 | 1013.5 |
| 20260905115804 | 42 | 125 | 1.0 | 2.0 | 0.00 | 0.00 | 0.00 | 69 | 1013.4 |
| 20260905115704 | 42 | 107 | 1.0 | 2.0 | 0.00 | 0.00 | 0.00 | 68 | 1013.4 |
| 20260905115603 | 42 | 0 | 0.0 | 2.0 | 0.00 | 0.00 | 0.00 | 68 | 1013.4 |
| 20260905115504 | 42 | 0 | 0.0 | 2.0 | 0.00 | 0.00 | 0.00 | 68 | 1013.4 |
| 20260905115404 | 42 | 89 | 1.0 | 2.0 | 0.00 | 0.00 | 0.00 | 67 | 1013.4 |
| 20260905115306 | 42 | 86 | 1.0 | 2.0 | 0.00 | 0.00 | 0.00 | 68 | 1013.4 |
| 20260905115204 | 42 | 0 | 0.0 | 2.0 | 0.00 | 0.00 | 0.00 | 68 | 1013.3 |
| 20260905115104 | 42 | 0 | 0.0 | 2.0 | 0.00 | 0.00 | 0.00 | 68 | 1013.3 |
| 20260905115004 | 42 | 0 | 0.0 | 2.0 | 0.00 | 0.00 | 0.00 | 67 | 1013.4 |
| 20260905114904 | 42 | 101 | 1.0 | 2.0 | 0.00 | 0.00 | 0.00 | 67 | 1013.4 |
| 20260905114805 | 43 | 107 | 1.0 | 2.0 | 0.00 | 0.00 | 0.00 | 68 | 1013.4 |
| 20260905114604 | 43 | 0 | 0.0 | 2.0 | 0.00 | 0.00 | 0.00 | 69 | 1013.3 |
| 20260905114504 | 43 | 0 | 0.0 | 2.0 | 0.00 | 0.00 | 0.00 | 69 | 1013.3 |
| 20260905114404 | 42 | 0 | 0.0 | 2.0 | 0.00 | 0.00 | 0.00 | 69 | 1013.4 |
| 20260905114304 | 42 | 0 | 0.0 | 2.0 | 0.00 | 0.00 | 0.00 | 69 | 1013.4 |
| 20260905114204 | 42 | 0 | 0.0 | 2.0 | 0.00 | 0.00 | 0.00 | 68 | 1013.3 |
| 20260905114104 | 42 | 0 | 0.0 | 2.0 | 0.00 | 0.00 | 0.00 | 68 | 1013.3 |
| 20260905114004 | 42 | 0 | 0.0 | 2.0 | 0.00 | 0.00 | 0.00 | 67 | 1013.3 |
| 20260905113904 | 42 | 0 | 0.0 | 2.0 | 0.00 | 0.00 | 0.00 | 67 | 1013.3 |
| 20260905113803 | 42 | 0 | 0.0 | 2.0 | 0.00 | 0.00 | 0.00 | 67 | 1013.2 |
| 20260905113704 | 42 | 0 | 0.0 | 2.0 | 0.00 | 0.00 | 0.00 | 66 | 1013.3 |
| 20260905113604 | 42 | 0 | 0.0 | 2.0 | 0.00 | 0.00 | 0.00 | 65 | 1013.3 |
| 20260905113004 | 43 | 0 | 0.0 | 2.0 | 0.00 | 0.00 | 0.00 | 67 | 1013.1 |
| 20260905112904 | 43 | 0 | 0.0 | 2.0 | 0.00 | 0.00 | 0.00 | 67 | 1013.3 |
| 20260905112803 | 43 | 0 | 0.0 | 2.0 | 0.00 | 0.00 | 0.00 | 68 | 1013.3 |
| 20260905112704 | 43 | 0 | 0.0 | 2.0 | 0.00 | 0.00 | 0.00 | 69 | 1013.4 |
| 20260905112604 | 43 | 0 | 0.0 | 2.0 | 0.00 | 0.00 | 0.00 | 69 | 1013.4 |
| 20260905112504 | 43 | 0 | 0.0 | 2.0 | 0.00 | 0.00 | 0.00 | 68 | 1013.3 |
| 20260905112403 | 42 | 0 | 0.0 | 2.0 | 0.00 | 0.00 | 0.00 | 67 | 1013.3 |
| 20260905112306 | 42 | 0 | 0.0 | 2.0 | 0.00 | 0.00 | 0.00 | 66 | 1013.3 |
| 20260905112204 | 42 | 136 | 1.0 | 2.0 | 0.00 | 0.00 | 0.00 | 66 | 1013.3 |
| 20260905112104 | 42 | 138 | 1.0 | 2.0 | 0.00 | 0.00 | 0.00 | 67 | 1013.2 |
| 20260905112004 | 42 | 0 | 0.0 | 2.0 | 0.00 | 0.00 | 0.00 | 67 | 1013.2 |
| 20260905111904 | 42 | 139 | 1.0 | 2.0 | 0.00 | 0.00 | 0.00 | 66 | 1013.2 |
| 20260905111804 | 42 | 139 | 1.0 | 2.0 | 0.00 | 0.00 | 0.00 | 66 | 1013.2 |
| 20260905111704 | 42 | 141 | 1.0 | 2.0 | 0.00 | 0.00 | 0.00 | 65 | 1013.3 |
| 20260905111604 | 42 | 0 | 0.0 | 2.0 | 0.00 | 0.00 | 0.00 | 64 | 1013.3 |
| 20260905111504 | 42 | 0 | 0.0 | 2.0 | 0.00 | 0.00 | 0.00 | 64 | 1013.3 |
| 20260905111404 | 42 | 140 | 1.0 | 2.0 | 0.00 | 0.00 | 0.00 | 63 | 1013.2 |
| 20260905111304 | 42 | 0 | 0.0 | 2.0 | 0.00 | 0.00 | 0.00 | 63 | 1013.2 |
| 20260905111204 | 42 | 135 | 1.0 | 2.0 | 0.00 | 0.00 | 0.00 | 62 | 1013.2 |
| 20260905111104 | 42 | 0 | 0.0 | 2.0 | 0.00 | 0.00 | 0.00 | 62 | 1013.2 |
| 20260905111004 | 42 | 0 | 0.0 | 0.0 | 0.00 | 0.00 | 0.00 | 62 | 1013.3 |
| 20260905110904 | 42 | 0 | 0.0 | 0.0 | 0.00 | 0.00 | 0.00 | 62 | 1013.2 |
| 20260905110804 | 43 | 0 | 0.0 | 0.0 | 0.00 | 0.00 | 0.00 | 62 | 1013.2 |
| 20260905110704 | 43 | 0 | 0.0 | 0.0 | 0.00 | 0.00 | 0.00 | 63 | 1013.2 |
| 20260905110603 | 43 | 0 | 0.0 | 0.0 | 0.00 | 0.00 | 0.00 | 63 | 1013.2 |
| 20260905110504 | 43 | 0 | 0.0 | 0.0 | 0.00 | 0.00 | 0.00 | 63 | 1013.2 |
| 20260905110404 | 43 | 0 | 0.0 | 0.0 | 0.00 | 0.00 | 0.00 | 63 | 1013.1 |
| 20260905110304 | 43 | 0 | 0.0 | 0.0 | 0.00 | 0.00 | 0.00 | 63 | 1013.1 |
| 20260905110203 | 43 | 0 | 0.0 | 1.0 | 0.00 | 0.00 | 0.00 | 63 | 1013.2 |
| 20260905110104 | 43 | 0 | 0.0 | 2.0 | 0.00 | 0.00 | 0.00 | 63 | 1013.1 |
| 20260905110004 | 43 | 0 | 0.0 | 2.0 | 0.00 | 0.00 | 0.00 | 63 | 1013.1 |
| 20260905105904 | 43 | 0 | 0.0 | 2.0 | 0.00 | 0.00 | 0.00 | 63 | 1013.1 |
| 20260905105804 | 43 | 0 | 0.0 | 2.0 | 0.00 | 0.00 | 0.00 | 64 | 1013.1 |
| 20260905105703 | 44 | 0 | 0.0 | 2.0 | 0.00 | 0.00 | 0.00 | 64 | 1013.2 |
| 20260905105504 | 44 | 0 | 0.0 | 2.0 | 0.00 | 0.00 | 0.00 | 64 | 1013.1 |
| 20260905105404 | 44 | 0 | 0.0 | 2.0 | 0.00 | 0.00 | 0.00 | 64 | 1013.0 |
| 20260905105306 | 44 | 0 | 0.0 | 2.0 | 0.00 | 0.00 | 0.00 | 64 | 1013.1 |
| 20260905105203 | 44 | 0 | 0.0 | 2.0 | 0.00 | 0.00 | 0.00 | 64 | 1013.1 |
| 20260905105104 | 44 | 0 | 0.0 | 2.0 | 0.00 | 0.00 | 0.00 | 64 | 1013.1 |
| 20260905105004 | 44 | 0 | 0.0 | 2.0 | 0.00 | 0.00 | 0.00 | 63 | 1013.1 |
| 20260905104904 | 44 | 0 | 0.0 | 2.0 | 0.00 | 0.00 | 0.00 | 63 | 1013.1 |
| 20260905104804 | 44 | 0 | 0.0 | 2.0 | 0.00 | 0.00 | 0.00 | 62 | 1013.3 |
| 20260905104704 | 44 | 0 | 0.0 | 2.0 | 0.00 | 0.00 | 0.00 | 62 | 1013.1 |
| 20260905104604 | 44 | 0 | 0.0 | 2.0 | 0.00 | 0.00 | 0.00 | 62 | 1013.1 |
| 20260905104004 | 45 | 0 | 0.0 | 2.0 | 0.00 | 0.00 | 0.00 | 62 | 1013.0 |
| 20260905103903 | 45 | 0 | 0.0 | 2.0 | 0.00 | 0.00 | 0.00 | 62 | 1013.1 |
| 20260905103803 | 45 | 0 | 0.0 | 2.0 | 0.00 | 0.00 | 0.00 | 62 | 1013.0 |
| 20260905103704 | 45 | 0 | 0.0 | 2.0 | 0.00 | 0.00 | 0.00 | 63 | 1013.0 |
| 20260905103604 | 45 | 0 | 0.0 | 2.0 | 0.00 | 0.00 | 0.00 | 63 | 1013.1 |
| 20260905103504 | 45 | 0 | 0.0 | 2.0 | 0.00 | 0.00 | 0.00 | 62 | 1013.0 |
| 20260905103404 | 45 | 0 | 0.0 | 2.0 | 0.00 | 0.00 | 0.00 | 61 | 1013.1 |
| 20260905103304 | 46 | 0 | 0.0 | 2.0 | 0.00 | 0.00 | 0.00 | 61 | 1013.0 |
| 20260905103204 | 46 | 0 | 0.0 | 2.0 | 0.00 | 0.00 | 0.00 | 62 | 1013.1 |
| 20260905103104 | 46 | 0 | 0.0 | 2.0 | 0.00 | 0.00 | 0.00 | 62 | 1013.1 |
| 20260905103003 | 46 | 0 | 0.0 | 2.0 | 0.00 | 0.00 | 0.00 | 63 | 1013.1 |
| 20260905102903 | 46 | 0 | 0.0 | 2.0 | 0.00 | 0.00 | 0.00 | 63 | 1013.0 |
| 20260905102804 | 46 | 0 | 0.0 | 2.0 | 0.00 | 0.00 | 0.00 | 63 | 1013.2 |
| 20260905102704 | 46 | 0 | 0.0 | 2.0 | 0.00 | 0.00 | 0.00 | 63 | 1013.1 |
| 20260905102604 | 46 | 0 | 0.0 | 2.0 | 0.00 | 0.00 | 0.00 | 64 | 1012.9 |
| 20260905102503 | 46 | 0 | 0.0 | 2.0 | 0.00 | 0.00 | 0.00 | 64 | 1013.0 |
| 20260905102404 | 46 | 0 | 0.0 | 2.0 | 0.00 | 0.00 | 0.00 | 64 | 1013.0 |
| 20260905102306 | 46 | 139 | 1.0 | 2.0 | 0.00 | 0.00 | 0.00 | 64 | 1013.1 |
| 20260905102204 | 46 | 135 | 1.0 | 2.0 | 0.00 | 0.00 | 0.00 | 64 | 1013.1 |
| 20260905102104 | 46 | 135 | 1.0 | 2.0 | 0.00 | 0.00 | 0.00 | 64 | 1013.0 |
| 20260905102004 | 46 | 135 | 1.0 | 2.0 | 0.00 | 0.00 | 0.00 | 63 | 1013.0 |
| 20260905101904 | 46 | 135 | 1.0 | 2.0 | 0.00 | 0.00 | 0.00 | 63 | 1012.9 |
| 20260905101404 | 46 | 0 | 0.0 | 2.0 | 0.00 | 0.00 | 0.00 | 62 | 1013.0 |
| 20260905101304 | 46 | 0 | 0.0 | 2.0 | 0.00 | 0.00 | 0.00 | 62 | 1013.1 |
| 20260905101204 | 46 | 0 | 0.0 | 2.0 | 0.00 | 0.00 | 0.00 | 63 | 1013.0 |
| 20260905101103 | 47 | 0 | 0.0 | 2.0 | 0.00 | 0.00 | 0.00 | 63 | 1013.0 |
| 20260905101004 | 47 | 0 | 0.0 | 2.0 | 0.00 | 0.00 | 0.00 | 63 | 1013.0 |
| 20260905100904 | 47 | 0 | 0.0 | 2.0 | 0.00 | 0.00 | 0.00 | 62 | 1013.2 |
| 20260905100805 | 47 | 0 | 0.0 | 1.0 | 0.00 | 0.00 | 0.00 | 61 | 1013.1 |
| 20260905100204 | 48 | 0 | 0.0 | 2.0 | 0.00 | 0.00 | 0.00 | 62 | 1013.0 |
| 20260905100104 | 48 | 0 | 0.0 | 2.0 | 0.00 | 0.00 | 0.00 | 62 | 1012.9 |
| 20260905100004 | 48 | 0 | 0.0 | 2.0 | 0.00 | 0.00 | 0.00 | 62 | 1013.0 |
| 20260905095904 | 48 | 0 | 0.0 | 2.0 | 0.00 | 0.00 | 0.00 | 62 | 1013.0 |
| 20260905095804 | 48 | 0 | 0.0 | 2.0 | 0.00 | 0.00 | 0.00 | 61 | 1013.0 |
| 20260905095704 | 48 | 0 | 0.0 | 2.0 | 0.00 | 0.00 | 0.00 | 61 | 1012.9 |
| 20260905095603 | 48 | 138 | 1.0 | 2.0 | 0.00 | 0.00 | 0.00 | 61 | 1012.9 |
| 20260905095504 | 48 | 135 | 1.0 | 2.0 | 0.00 | 0.00 | 0.00 | 60 | 1013.0 |
| 20260905095404 | 48 | 135 | 1.0 | 2.0 | 0.00 | 0.00 | 0.00 | 60 | 1013.0 |
| 20260905095306 | 48 | 135 | 1.0 | 2.0 | 0.00 | 0.00 | 0.00 | 60 | 1013.0 |
| 20260905095203 | 48 | 0 | 0.0 | 2.0 | 0.00 | 0.00 | 0.00 | 59 | 1012.8 |
| 20260905095104 | 48 | 0 | 0.0 | 2.0 | 0.00 | 0.00 | 0.00 | 59 | 1012.9 |
| 20260905094604 | 49 | 0 | 0.0 | 2.0 | 0.00 | 0.00 | 0.00 | 59 | 1012.8 |
| 20260905094504 | 49 | 0 | 0.0 | 2.0 | 0.00 | 0.00 | 0.00 | 59 | 1012.8 |
| 20260905094403 | 49 | 0 | 0.0 | 2.0 | 0.00 | 0.00 | 0.00 | 59 | 1012.9 |
| 20260905094304 | 49 | 0 | 0.0 | 2.0 | 0.00 | 0.00 | 0.00 | 59 | 1012.9 |
| 20260905094204 | 49 | 0 | 0.0 | 2.0 | 0.00 | 0.00 | 0.00 | 60 | 1012.9 |
| 20260905094103 | 49 | 0 | 0.0 | 4.0 | 0.00 | 0.00 | 0.00 | 60 | 1012.8 |
| 20260905094004 | 49 | 0 | 0.0 | 4.0 | 0.00 | 0.00 | 0.00 | 60 | 1012.9 |
| 20260905093904 | 49 | 0 | 0.0 | 4.0 | 0.00 | 0.00 | 0.00 | 60 | 1012.8 |
| 20260905093803 | 49 | 0 | 0.0 | 4.0 | 0.00 | 0.00 | 0.00 | 60 | 1012.8 |
| 20260905093703 | 49 | 0 | 0.0 | 4.0 | 0.00 | 0.00 | 0.00 | 60 | 1012.8 |
| 20260905093604 | 49 | 239 | 2.0 | 4.0 | 0.00 | 0.00 | 0.00 | 60 | 1012.8 |
| 20260905093504 | 49 | 244 | 1.0 | 4.0 | 0.00 | 0.00 | 0.00 | 60 | 1012.7 |
| 20260905093303 | 49 | 254 | 1.0 | 4.0 | 0.00 | 0.00 | 0.00 | 59 | 1012.7 |
| 20260905093204 | 49 | 257 | 2.0 | 4.0 | 0.00 | 0.00 | 0.00 | 59 | 1012.7 |
| 20260905093104 | 49 | 263 | 2.0 | 3.0 | 0.00 | 0.00 | 0.00 | 59 | 1012.7 |
| 20260905093004 | 49 | 256 | 2.0 | 3.0 | 0.00 | 0.00 | 0.00 | 58 | 1012.6 |
| 20260905092903 | 50 | 244 | 2.0 | 3.0 | 0.00 | 0.00 | 0.00 | 58 | 1012.7 |
| 20260905092404 | 51 | 0 | 0.0 | 2.0 | 0.00 | 0.00 | 0.00 | 58 | 1012.6 |
| 20260905092306 | 51 | 0 | 0.0 | 2.0 | 0.00 | 0.00 | 0.00 | 58 | 1012.7 |
| 20260905092204 | 51 | 0 | 0.0 | 2.0 | 0.00 | 0.00 | 0.00 | 58 | 1012.7 |
| 20260905092104 | 51 | 0 | 0.0 | 2.0 | 0.00 | 0.00 | 0.00 | 58 | 1012.5 |
| 20260905092004 | 51 | 0 | 0.0 | 2.0 | 0.00 | 0.00 | 0.00 | 58 | 1012.6 |
| 20260905091903 | 51 | 195 | 1.0 | 2.0 | 0.00 | 0.00 | 0.00 | 58 | 1012.5 |
| 20260905091804 | 51 | 198 | 1.0 | 2.0 | 0.00 | 0.00 | 0.00 | 59 | 1012.5 |
| 20260905091704 | 51 | 195 | 1.0 | 2.0 | 0.00 | 0.00 | 0.00 | 59 | 1012.6 |
| 20260905091604 | 51 | 201 | 1.0 | 2.0 | 0.00 | 0.00 | 0.00 | 59 | 1012.6 |
| 20260905091503 | 51 | 209 | 1.0 | 2.0 | 0.00 | 0.00 | 0.00 | 59 | 1012.6 |
| 20260905091403 | 51 | 219 | 2.0 | 2.0 | 0.00 | 0.00 | 0.00 | 59 | 1012.6 |
| 20260905091304 | 51 | 225 | 1.0 | 2.0 | 0.00 | 0.00 | 0.00 | 59 | 1012.5 |
| 20260905091204 | 51 | 236 | 1.0 | 2.0 | 0.00 | 0.00 | 0.00 | 59 | 1012.5 |
| 20260905091103 | 51 | 243 | 1.0 | 2.0 | 0.00 | 0.00 | 0.00 | 59 | 1012.5 |
| 20260905091004 | 51 | 0 | 0.0 | 2.0 | 0.00 | 0.00 | 0.00 | 59 | 1012.5 |
| 20260905090904 | 51 | 0 | 0.0 | 2.0 | 0.00 | 0.00 | 0.00 | 59 | 1012.5 |
| 20260905090804 | 50 | 255 | 1.0 | 2.0 | 0.00 | 0.00 | 0.00 | 60 | 1012.5 |
| 20260905090703 | 50 | 0 | 0.0 | 2.0 | 0.00 | 0.00 | 0.00 | 61 | 1012.5 |
| 20260905090604 | 50 | 0 | 0.0 | 2.0 | 0.00 | 0.00 | 0.00 | 61 | 1012.5 |
| 20260905090004 | 50 | 0 | 0.0 | 2.0 | 0.00 | 0.00 | 0.00 | 60 | 1012.6 |
| 20260905085904 | 50 | 154 | 1.0 | 2.0 | 0.00 | 0.00 | 0.00 | 60 | 1012.6 |
| 20260905085804 | 50 | 150 | 1.0 | 2.0 | 0.00 | 0.00 | 0.00 | 60 | 1012.7 |
| 20260905085703 | 50 | 0 | 0.0 | 2.0 | 0.00 | 0.00 | 0.00 | 59 | 1012.8 |
| 20260905085603 | 50 | 0 | 0.0 | 2.0 | 0.00 | 0.00 | 0.00 | 59 | 1012.6 |
| 20260905085404 | 50 | 0 | 0.0 | 2.0 | 0.00 | 0.00 | 0.00 | 60 | 1012.8 |
| 20260905085306 | 50 | 0 | 0.0 | 2.0 | 0.00 | 0.00 | 0.00 | 60 | 1012.7 |
| 20260905085204 | 50 | 171 | 1.0 | 2.0 | 0.00 | 0.00 | 0.00 | 60 | 1012.7 |
| 20260905085104 | 50 | 0 | 0.0 | 2.0 | 0.00 | 0.00 | 0.00 | 60 | 1012.6 |
| 20260905085004 | 50 | 0 | 0.0 | 2.0 | 0.00 | 0.00 | 0.00 | 60 | 1012.7 |
| 20260905084904 | 50 | 191 | 1.0 | 2.0 | 0.00 | 0.00 | 0.00 | 60 | 1012.8 |
| 20260905084804 | 49 | 0 | 0.0 | 2.0 | 0.00 | 0.00 | 0.00 | 61 | 1012.7 |
| 20260905084703 | 49 | 197 | 1.0 | 2.0 | 0.00 | 0.00 | 0.00 | 61 | 1012.6 |
| 20260905084604 | 49 | 189 | 1.0 | 2.0 | 0.00 | 0.00 | 0.00 | 61 | 1012.7 |
| 20260905084503 | 49 | 184 | 1.0 | 2.0 | 0.00 | 0.00 | 0.00 | 61 | 1012.7 |
| 20260905084404 | 49 | 209 | 1.0 | 2.0 | 0.00 | 0.00 | 0.00 | 60 | 1012.6 |
| 20260905084304 | 49 | 192 | 2.0 | 2.0 | 0.00 | 0.00 | 0.00 | 59 | 1012.8 |
| 20260905084204 | 49 | 0 | 0.0 | 2.0 | 0.00 | 0.00 | 0.00 | 59 | 1012.6 |
| 20260905084104 | 49 | 0 | 0.0 | 2.0 | 0.00 | 0.00 | 0.00 | 59 | 1012.6 |
| 20260905084004 | 49 | 109 | 1.0 | 2.0 | 0.00 | 0.00 | 0.00 | 58 | 1012.6 |
| 20260905083904 | 49 | 0 | 0.0 | 2.0 | 0.00 | 0.00 | 0.00 | 58 | 1012.6 |
| 20260905083803 | 49 | 0 | 0.0 | 2.0 | 0.00 | 0.00 | 0.00 | 57 | 1012.6 |
| 20260905083704 | 49 | 0 | 0.0 | 2.0 | 0.00 | 0.00 | 0.00 | 57 | 1012.6 |
| 20260905083604 | 49 | 138 | 1.0 | 2.0 | 0.00 | 0.00 | 0.00 | 56 | 1012.5 |
| 20260905083503 | 50 | 144 | 1.0 | 3.0 | 0.00 | 0.00 | 0.00 | 56 | 1012.5 |
| 20260905083404 | 50 | 0 | 0.0 | 3.0 | 0.00 | 0.00 | 0.00 | 56 | 1012.6 |
| 20260905083304 | 50 | 0 | 0.0 | 3.0 | 0.00 | 0.00 | 0.00 | 56 | 1012.6 |
| 20260905083103 | 50 | 0 | 0.0 | 3.0 | 0.00 | 0.00 | 0.00 | 55 | 1012.6 |
| 20260905083003 | 50 | 162 | 1.0 | 4.0 | 0.00 | 0.00 | 0.00 | 55 | 1012.5 |
| 20260905082904 | 50 | 167 | 1.0 | 4.0 | 0.00 | 0.00 | 0.00 | 55 | 1012.6 |
| 20260905082804 | 51 | 169 | 1.0 | 4.0 | 0.00 | 0.00 | 0.00 | 54 | 1012.6 |
| 20260905082703 | 51 | 0 | 0.0 | 4.0 | 0.00 | 0.00 | 0.00 | 54 | 1012.7 |
| 20260905082604 | 51 | 163 | 2.0 | 4.0 | 0.00 | 0.00 | 0.00 | 54 | 1012.5 |
| 20260905082104 | 52 | 0 | 0.0 | 4.0 | 0.00 | 0.00 | 0.00 | 52 | 1012.5 |
| 20260905081603 | 53 | 167 | 1.0 | 2.0 | 0.00 | 0.00 | 0.00 | 50 | 1012.5 |
| 20260905081104 | 54 | 0 | 0.0 | 2.0 | 0.00 | 0.00 | 0.00 | 49 | 1012.4 |
| 20260905080604 | 55 | 0 | 0.0 | 2.0 | 0.00 | 0.00 | 0.00 | 48 | 1012.4 |
| 20260905080503 | 55 | 0 | 0.0 | 2.0 | 0.00 | 0.00 | 0.00 | 48 | 1012.5 |
| 20260905080404 | 55 | 0 | 0.0 | 2.0 | 0.00 | 0.00 | 0.00 | 48 | 1012.6 |
| 20260905080304 | 55 | 0 | 0.0 | 2.0 | 0.00 | 0.00 | 0.00 | 48 | 1012.5 |
| 20260905080204 | 55 | 0 | 0.0 | 2.0 | 0.00 | 0.00 | 0.00 | 48 | 1012.6 |
| 20260905080104 | 55 | 0 | 0.0 | 2.0 | 0.00 | 0.00 | 0.00 | 48 | 1012.5 |
| 20260905080004 | 55 | 69 | 1.0 | 2.0 | 0.00 | 0.00 | 0.00 | 48 | 1012.3 |
| 20260905075904 | 55 | 25 | 1.0 | 2.0 | 0.00 | 0.00 | 0.00 | 47 | 1012.4 |
| 20260905075804 | 55 | 0 | 0.0 | 2.0 | 0.00 | 0.00 | 0.00 | 48 | 1012.4 |
| 20260905075704 | 55 | 0 | 0.0 | 2.0 | 0.00 | 0.00 | 0.00 | 48 | 1012.4 |
| 20260905075604 | 56 | 0 | 0.0 | 2.0 | 0.00 | 0.00 | 0.00 | 48 | 1012.3 |
| 20260905075504 | 56 | 0 | 0.0 | 2.0 | 0.00 | 0.00 | 0.00 | 48 | 1012.4 |
| 20260905075306 | 56 | 0 | 0.0 | 2.0 | 0.00 | 0.00 | 0.00 | 48 | 1012.4 |
| 20260905075204 | 56 | 0 | 0.0 | 2.0 | 0.00 | 0.00 | 0.00 | 47 | 1012.4 |
| 20260905075103 | 56 | 0 | 0.0 | 2.0 | 0.00 | 0.00 | 0.00 | 47 | 1012.4 |
| 20260905075003 | 56 | 0 | 0.0 | 3.0 | 0.00 | 0.00 | 0.00 | 47 | 1012.3 |
| 20260905074904 | 56 | 0 | 0.0 | 3.0 | 0.00 | 0.00 | 0.00 | 46 | 1012.4 |
| 20260905074204 | 56 | 0 | 0.0 | 4.0 | 0.00 | 0.00 | 0.00 | 45 | 1012.3 |
| 20260905074104 | 56 | 0 | 0.0 | 4.0 | 0.00 | 0.00 | 0.00 | 45 | 1012.3 |
| 20260905074003 | 57 | 25 | 2.0 | 5.0 | 0.00 | 0.00 | 0.00 | 44 | 1012.3 |
| 20260905073904 | 57 | 25 | 2.0 | 5.0 | 0.00 | 0.00 | 0.00 | 44 | 1012.4 |
| 20260905073804 | 57 | 29 | 2.0 | 5.0 | 0.00 | 0.00 | 0.00 | 44 | 1012.4 |
| 20260905073704 | 57 | 32 | 2.0 | 8.0 | 0.00 | 0.00 | 0.00 | 44 | 1012.3 |
| 20260905073604 | 57 | 30 | 1.0 | 8.0 | 0.00 | 0.00 | 0.00 | 44 | 1012.3 |
| 20260905073504 | 57 | 18 | 2.0 | 8.0 | 0.00 | 0.00 | 0.00 | 44 | 1012.2 |
| 20260905073404 | 58 | 341 | 2.0 | 8.0 | 0.00 | 0.00 | 0.00 | 44 | 1012.3 |
| 20260905073304 | 58 | 299 | 2.0 | 8.0 | 0.00 | 0.00 | 0.00 | 44 | 1012.3 |
| 20260905073203 | 58 | 279 | 2.0 | 10.0 | 0.00 | 0.00 | 0.00 | 45 | 1012.3 |
| 20260905073104 | 58 | 282 | 3.0 | 10.0 | 0.00 | 0.00 | 0.00 | 45 | 1012.3 |
| 20260905073004 | 58 | 289 | 3.0 | 10.0 | 0.00 | 0.00 | 0.00 | 45 | 1012.3 |
| 20260905072904 | 58 | 291 | 3.0 | 10.0 | 0.00 | 0.00 | 0.00 | 45 | 1012.3 |
| 20260905072804 | 58 | 288 | 3.0 | 10.0 | 0.00 | 0.00 | 0.00 | 47 | 1012.2 |
| 20260905072703 | 57 | 282 | 5.0 | 10.0 | 0.00 | 0.00 | 0.00 | 48 | 1012.3 |
| 20260905072604 | 57 | 305 | 5.0 | 10.0 | 0.00 | 0.00 | 0.00 | 48 | 1012.2 |
| 20260905072504 | 57 | 348 | 5.0 | 10.0 | 0.00 | 0.00 | 0.00 | 48 | 1012.3 |
| 20260905072404 | 57 | 22 | 5.0 | 10.0 | 0.00 | 0.00 | 0.00 | 48 | 1012.3 |
| 20260905072306 | 57 | 37 | 5.0 | 10.0 | 0.00 | 0.00 | 0.00 | 48 | 1012.1 |
| 20260905072203 | 56 | 37 | 4.0 | 10.0 | 0.00 | 0.00 | 0.00 | 48 | 1012.2 |
| 20260905072103 | 56 | 28 | 2.0 | 7.0 | 0.00 | 0.00 | 0.00 | 47 | 1012.2 |
| 20260905072003 | 56 | 37 | 4.0 | 7.0 | 0.00 | 0.00 | 0.00 | 47 | 1012.2 |
| 20260905071904 | 56 | 55 | 2.0 | 4.0 | 0.00 | 0.00 | 0.00 | 46 | 1012.2 |
| 20260905071804 | 56 | 70 | 3.0 | 4.0 | 0.00 | 0.00 | 0.00 | 45 | 1012.2 |
| 20260905071704 | 56 | 321 | 2.0 | 4.0 | 0.00 | 0.00 | 0.00 | 45 | 1012.1 |
| 20260905071603 | 56 | 291 | 1.0 | 3.0 | 0.00 | 0.00 | 0.00 | 45 | 1012.2 |
| 20260905071504 | 56 | 296 | 1.0 | 3.0 | 0.00 | 0.00 | 0.00 | 45 | 1012.2 |
| 20260905071404 | 56 | 0 | 0.0 | 3.0 | 0.00 | 0.00 | 0.00 | 44 | 1012.3 |
| 20260905071304 | 56 | 0 | 0.0 | 3.0 | 0.00 | 0.00 | 0.00 | 44 | 1012.2 |
| 20260905071203 | 56 | 0 | 0.0 | 3.0 | 0.00 | 0.00 | 0.00 | 44 | 1012.1 |
| 20260905071104 | 56 | 0 | 0.0 | 3.0 | 0.00 | 0.00 | 0.00 | 44 | 1012.2 |
| 20260905071004 | 56 | 0 | 0.0 | 3.0 | 0.00 | 0.00 | 0.00 | 44 | 1012.2 |
| 20260905070904 | 56 | 0 | 0.0 | 3.0 | 0.00 | 0.00 | 0.00 | 44 | 1012.2 |
| 20260905070804 | 56 | 0 | 0.0 | 3.0 | 0.00 | 0.00 | 0.00 | 44 | 1012.3 |
| 20260905070704 | 56 | 299 | 2.0 | 3.0 | 0.00 | 0.00 | 0.00 | 43 | 1012.2 |
| 20260905070604 | 56 | 296 | 2.0 | 3.0 | 0.00 | 0.00 | 0.00 | 43 | 1012.1 |
| 20260905070007 | 56 | 274 | 1.0 | 4.0 | 0.00 | 0.00 | 0.00 | 43 | 1011.9 |
| 20260905065904 | 56 | 273 | 2.0 | 4.0 | 0.00 | 0.00 | 0.00 | 43 | 1012.1 |
| 20260905065803 | 56 | 278 | 2.0 | 4.0 | 0.00 | 0.00 | 0.00 | 43 | 1012.0 |
| 20260905065704 | 56 | 0 | 0.0 | 4.0 | 0.00 | 0.00 | 0.00 | 43 | 1012.0 |
| 20260905065603 | 56 | 0 | 0.0 | 5.0 | 0.00 | 0.00 | 0.00 | 43 | 1012.1 |
| 20260905065504 | 56 | 304 | 1.0 | 5.0 | 0.00 | 0.00 | 0.00 | 43 | 1012.0 |
| 20260905065404 | 56 | 311 | 2.0 | 5.0 | 0.00 | 0.00 | 0.00 | 42 | 1012.1 |
| 20260905065306 | 56 | 319 | 1.0 | 5.0 | 0.00 | 0.00 | 0.00 | 42 | 1012.1 |
| 20260905065203 | 56 | 325 | 1.0 | 5.0 | 0.00 | 0.00 | 0.00 | 42 | 1012.0 |
| 20260905065104 | 56 | 325 | 2.0 | 5.0 | 0.00 | 0.00 | 0.00 | 42 | 1011.9 |
| 20260905065004 | 57 | 333 | 3.0 | 5.0 | 0.00 | 0.00 | 0.00 | 42 | 1012.0 |
| 20260905064903 | 57 | 345 | 3.0 | 5.0 | 0.00 | 0.00 | 0.00 | 41 | 1011.9 |
| 20260905064803 | 57 | 1 | 3.0 | 5.0 | 0.00 | 0.00 | 0.00 | 41 | 1011.9 |
| 20260905064704 | 57 | 18 | 2.0 | 5.0 | 0.00 | 0.00 | 0.00 | 41 | 1012.0 |
| 20260905064604 | 57 | 43 | 2.0 | 4.0 | 0.00 | 0.00 | 0.00 | 39 | 1011.9 |
| 20260905064504 | 58 | 97 | 2.0 | 3.0 | 0.00 | 0.00 | 0.00 | 39 | 1011.9 |
| 20260905064403 | 58 | 154 | 2.0 | 3.0 | 0.00 | 0.00 | 0.00 | 40 | 1011.9 |
| 20260905064304 | 58 | 176 | 2.0 | 3.0 | 0.00 | 0.00 | 0.00 | 40 | 1011.8 |
| 20260905064204 | 58 | 0 | 0.0 | 2.0 | 0.00 | 0.00 | 0.00 | 40 | 1011.8 |
| 20260905064104 | 58 | 0 | 0.0 | 2.0 | 0.00 | 0.00 | 0.00 | 39 | 1011.8 |
| 20260905064003 | 59 | 0 | 0.0 | 4.0 | 0.00 | 0.00 | 0.00 | 39 | 1011.8 |
| 20260905063904 | 59 | 0 | 0.0 | 4.0 | 0.00 | 0.00 | 0.00 | 38 | 1011.9 |
| 20260905063404 | 59 | 0 | 0.0 | 4.0 | 0.00 | 0.00 | 0.00 | 38 | 1011.7 |
| 20260905063304 | 59 | 0 | 0.0 | 4.0 | 0.00 | 0.00 | 0.00 | 38 | 1011.8 |
| 20260905063204 | 59 | 224 | 1.0 | 4.0 | 0.00 | 0.00 | 0.00 | 38 | 1011.6 |
| 20260905063103 | 60 | 219 | 2.0 | 4.0 | 0.00 | 0.00 | 0.00 | 38 | 1011.6 |
| 20260905063004 | 60 | 214 | 2.0 | 4.0 | 0.00 | 0.00 | 0.00 | 38 | 1011.6 |
| 20260905062904 | 60 | 207 | 2.0 | 4.0 | 0.00 | 0.00 | 0.00 | 38 | 1011.6 |
| 20260905062803 | 60 | 198 | 2.0 | 4.0 | 0.00 | 0.00 | 0.00 | 38 | 1011.5 |
| 20260905062306 | 60 | 131 | 2.0 | 4.0 | 0.00 | 0.00 | 0.00 | 37 | 1011.5 |
| 20260905062204 | 60 | 0 | 0.0 | 4.0 | 0.00 | 0.00 | 0.00 | 37 | 1011.5 |
| 20260905062103 | 60 | 0 | 0.0 | 5.0 | 0.00 | 0.00 | 0.00 | 37 | 1011.5 |
| 20260905062004 | 60 | 0 | 0.0 | 7.0 | 0.00 | 0.00 | 0.00 | 37 | 1011.6 |
| 20260905061904 | 60 | 0 | 0.0 | 9.0 | 0.00 | 0.00 | 0.00 | 37 | 1011.5 |
| 20260905061804 | 60 | 0 | 0.0 | 9.0 | 0.00 | 0.00 | 0.00 | 37 | 1011.5 |
| 20260905061703 | 60 | 0 | 0.0 | 9.0 | 0.00 | 0.00 | 0.00 | 37 | 1011.5 |
| 20260905061604 | 60 | 0 | 0.0 | 11.0 | 0.00 | 0.00 | 0.00 | 37 | 1011.4 |
| 20260905061504 | 60 | 0 | 0.0 | 11.0 | 0.00 | 0.00 | 0.00 | 37 | 1011.4 |
| 20260905061405 | 60 | 80 | 2.0 | 11.0 | 0.00 | 0.00 | 0.00 | 37 | 1011.4 |
| 20260905061303 | 60 | 77 | 2.0 | 11.0 | 0.00 | 0.00 | 0.00 | 37 | 1011.3 |
| 20260905061204 | 60 | 77 | 4.0 | 11.0 | 0.00 | 0.00 | 0.00 | 37 | 1011.4 |
| 20260905061103 | 60 | 77 | 5.0 | 11.0 | 0.00 | 0.00 | 0.00 | 37 | 1011.4 |
| 20260905061004 | 60 | 80 | 3.0 | 11.0 | 0.00 | 0.00 | 0.00 | 37 | 1011.3 |
| 20260905060904 | 60 | 75 | 4.0 | 11.0 | 0.00 | 0.00 | 0.00 | 38 | 1011.3 |
| 20260905060803 | 60 | 82 | 7.0 | 11.0 | 0.00 | 0.00 | 0.00 | 38 | 1011.2 |
| 20260905060704 | 60 | 84 | 8.0 | 11.0 | 0.00 | 0.00 | 0.00 | 38 | 1011.2 |
| 20260905060604 | 60 | 95 | 2.0 | 10.0 | 0.00 | 0.00 | 0.00 | 38 | 1011.2 |
| 20260905060503 | 60 | 110 | 4.0 | 10.0 | 0.00 | 0.00 | 0.00 | 38 | 1011.2 |
| 20260905060404 | 60 | 111 | 2.0 | 8.0 | 0.00 | 0.00 | 0.00 | 37 | 1011.2 |
| 20260905060304 | 60 | 109 | 2.0 | 8.0 | 0.00 | 0.00 | 0.00 | 38 | 1011.3 |
| 20260905060203 | 60 | 108 | 2.0 | 8.0 | 0.00 | 0.00 | 0.00 | 37 | 1011.3 |
| 20260905060104 | 60 | 112 | 2.0 | 8.0 | 0.00 | 0.00 | 0.00 | 37 | 1011.2 |
| 20260905060004 | 60 | 115 | 2.0 | 8.0 | 0.00 | 0.00 | 0.00 | 37 | 1011.1 |
| 20260905055904 | 60 | 114 | 4.0 | 8.0 | 0.00 | 0.00 | 0.00 | 37 | 1011.1 |
| 20260905055803 | 60 | 110 | 3.0 | 8.0 | 0.00 | 0.00 | 0.00 | 37 | 1011.1 |
| 20260905055704 | 60 | 112 | 2.0 | 8.0 | 0.00 | 0.00 | 0.00 | 37 | 1011.1 |
| 20260905055604 | 60 | 105 | 2.0 | 8.0 | 0.00 | 0.00 | 0.00 | 37 | 1010.9 |
| 20260905055504 | 60 | 100 | 2.0 | 8.0 | 0.00 | 0.00 | 0.00 | 37 | 1010.9 |
| 20260905055403 | 60 | 95 | 4.0 | 7.0 | 0.00 | 0.00 | 0.00 | 37 | 1011.0 |
| 20260905055306 | 60 | 102 | 2.0 | 6.0 | 0.00 | 0.00 | 0.00 | 37 | 1011.0 |
| 20260905055204 | 60 | 0 | 0.0 | 7.0 | 0.00 | 0.00 | 0.00 | 37 | 1010.9 |
| 20260905055104 | 60 | 97 | 2.0 | 7.0 | 0.00 | 0.00 | 0.00 | 37 | 1010.9 |
| 20260905055003 | 60 | 94 | 2.0 | 7.0 | 0.00 | 0.00 | 0.00 | 37 | 1011.0 |
| 20260905054904 | 60 | 94 | 1.0 | 7.0 | 0.00 | 0.00 | 0.00 | 37 | 1010.9 |
| 20260905054804 | 60 | 94 | 1.0 | 8.0 | 0.00 | 0.00 | 0.00 | 37 | 1010.9 |
| 20260905054703 | 60 | 90 | 3.0 | 8.0 | 0.00 | 0.00 | 0.00 | 37 | 1011.0 |
| 20260905054604 | 60 | 90 | 4.0 | 8.0 | 0.00 | 0.00 | 0.00 | 37 | 1010.9 |
| 20260905054504 | 60 | 90 | 4.0 | 8.0 | 0.00 | 0.00 | 0.00 | 37 | 1010.9 |
| 20260905054403 | 60 | 90 | 1.0 | 8.0 | 0.00 | 0.00 | 0.00 | 36 | 1010.9 |
| 20260905054303 | 60 | 90 | 3.0 | 8.0 | 0.00 | 0.00 | 0.00 | 37 | 1011.0 |
| 20260905054204 | 61 | 90 | 4.0 | 8.0 | 0.00 | 0.00 | 0.00 | 37 | 1010.8 |
| 20260905054104 | 61 | 94 | 4.0 | 8.0 | 0.00 | 0.00 | 0.00 | 36 | 1010.8 |
| 20260905054003 | 61 | 99 | 4.0 | 8.0 | 0.00 | 0.00 | 0.00 | 36 | 1010.8 |
| 20260905053904 | 61 | 99 | 4.0 | 8.0 | 0.00 | 0.00 | 0.00 | 36 | 1010.8 |
| 20260905053404 | 61 | 109 | 2.0 | 11.0 | 0.00 | 0.00 | 0.00 | 35 | 1010.9 |
| 20260905053304 | 61 | 105 | 2.0 | 11.0 | 0.00 | 0.00 | 0.00 | 35 | 1010.8 |
| 20260905053204 | 62 | 102 | 2.0 | 11.0 | 0.00 | 0.00 | 0.00 | 35 | 1010.6 |
| 20260905053104 | 62 | 99 | 2.0 | 11.0 | 0.00 | 0.00 | 0.00 | 35 | 1010.6 |
| 20260905053004 | 62 | 97 | 2.0 | 11.0 | 0.00 | 0.00 | 0.00 | 34 | 1010.7 |
| 20260905052903 | 62 | 97 | 4.0 | 11.0 | 0.00 | 0.00 | 0.00 | 34 | 1010.6 |
| 20260905052804 | 62 | 98 | 4.0 | 11.0 | 0.00 | 0.00 | 0.00 | 35 | 1010.7 |
| 20260905052703 | 62 | 93 | 2.0 | 11.0 | 0.00 | 0.00 | 0.00 | 34 | 1010.7 |
| 20260905052604 | 62 | 91 | 2.0 | 11.0 | 0.00 | 0.00 | 0.00 | 34 | 1010.6 |
| 20260905052504 | 62 | 87 | 4.0 | 11.0 | 0.00 | 0.00 | 0.00 | 34 | 1010.7 |
| 20260905052404 | 62 | 87 | 6.0 | 10.0 | 0.00 | 0.00 | 0.00 | 34 | 1010.5 |
| 20260905052306 | 62 | 87 | 2.0 | 6.0 | 0.00 | 0.00 | 0.00 | 32 | 1010.6 |
| 20260905052203 | 62 | 87 | 2.0 | 6.0 | 0.00 | 0.00 | 0.00 | 32 | 1010.6 |
| 20260905052104 | 62 | 89 | 2.0 | 6.0 | 0.00 | 0.00 | 0.00 | 32 | 1010.5 |
| 20260905052004 | 62 | 90 | 2.0 | 7.0 | 0.00 | 0.00 | 0.00 | 32 | 1010.6 |
| 20260905051903 | 62 | 90 | 2.0 | 8.0 | 0.00 | 0.00 | 0.00 | 32 | 1010.6 |
| 20260905051803 | 62 | 90 | 2.0 | 8.0 | 0.00 | 0.00 | 0.00 | 32 | 1010.6 |
| 20260905051704 | 62 | 90 | 2.0 | 8.0 | 0.00 | 0.00 | 0.00 | 32 | 1010.5 |
| 20260905051604 | 62 | 92 | 3.0 | 8.0 | 0.00 | 0.00 | 0.00 | 32 | 1010.5 |
| 20260905051503 | 62 | 96 | 2.0 | 8.0 | 0.00 | 0.00 | 0.00 | 32 | 1010.6 |
| 20260905051404 | 62 | 101 | 4.0 | 8.0 | 0.00 | 0.00 | 0.00 | 32 | 1010.5 |
| 20260905051304 | 62 | 111 | 2.0 | 8.0 | 0.00 | 0.00 | 0.00 | 31 | 1010.6 |
| 20260905051204 | 63 | 127 | 1.0 | 8.0 | 0.00 | 0.00 | 0.00 | 30 | 1010.5 |
| 20260905051004 | 63 | 159 | 4.0 | 8.0 | 0.00 | 0.00 | 0.00 | 29 | 1010.5 |
| 20260905050903 | 63 | 175 | 5.0 | 8.0 | 0.00 | 0.00 | 0.00 | 29 | 1010.5 |
| 20260905050803 | 64 | 200 | 3.0 | 8.0 | 0.00 | 0.00 | 0.00 | 28 | 1010.4 |
| 20260905050704 | 64 | 213 | 4.0 | 8.0 | 0.00 | 0.00 | 0.00 | 27 | 1010.4 |
| 20260905050004 | 65 | 235 | 3.0 | 10.0 | 0.00 | 0.00 | 0.00 | 26 | 1010.3 |
| 20260905045903 | 65 | 236 | 2.0 | 10.0 | 0.00 | 0.00 | 0.00 | 26 | 1010.4 |
| 20260905045803 | 65 | 227 | 2.0 | 10.0 | 0.00 | 0.00 | 0.00 | 26 | 1010.3 |
| 20260905045704 | 65 | 226 | 2.0 | 10.0 | 0.00 | 0.00 | 0.00 | 26 | 1010.4 |
| 20260905045604 | 65 | 228 | 5.0 | 10.0 | 0.00 | 0.00 | 0.00 | 26 | 1010.3 |
| 20260905045503 | 65 | 219 | 4.0 | 10.0 | 0.00 | 0.00 | 0.00 | 25 | 1010.2 |
| 20260905045404 | 65 | 213 | 6.0 | 10.0 | 0.00 | 0.00 | 0.00 | 26 | 1010.3 |
| 20260905045306 | 65 | 222 | 6.0 | 10.0 | 0.00 | 0.00 | 0.00 | 26 | 1010.4 |
| 20260905045204 | 65 | 219 | 2.0 | 14.0 | 0.00 | 0.00 | 0.00 | 26 | 1010.1 |
| 20260905045104 | 65 | 221 | 2.0 | 14.0 | 0.00 | 0.00 | 0.00 | 26 | 1010.2 |
| 20260905045004 | 65 | 222 | 2.0 | 14.0 | 0.00 | 0.00 | 0.00 | 26 | 1010.2 |
| 20260905044903 | 65 | 231 | 2.0 | 14.0 | 0.00 | 0.00 | 0.00 | 26 | 1010.1 |
| 20260905044804 | 65 | 244 | 2.0 | 14.0 | 0.00 | 0.00 | 0.00 | 26 | 1010.2 |
| 20260905044704 | 65 | 262 | 2.0 | 14.0 | 0.00 | 0.00 | 0.00 | 26 | 1010.2 |
| 20260905044604 | 65 | 256 | 3.0 | 14.0 | 0.00 | 0.00 | 0.00 | 26 | 1010.2 |
| 20260905044504 | 65 | 258 | 6.0 | 14.0 | 0.00 | 0.00 | 0.00 | 26 | 1010.1 |
| 20260905044403 | 65 | 263 | 6.0 | 14.0 | 0.00 | 0.00 | 0.00 | 26 | 1010.1 |
| 20260905044304 | 65 | 252 | 8.0 | 14.0 | 0.00 | 0.00 | 0.00 | 26 | 1010.0 |
| 20260905044204 | 64 | 262 | 5.0 | 11.0 | 0.00 | 0.00 | 0.00 | 26 | 1010.1 |
| 20260905044103 | 64 | 263 | 7.0 | 11.0 | 0.00 | 0.00 | 0.00 | 26 | 1010.1 |
| 20260905044003 | 64 | 270 | 4.0 | 9.0 | 0.00 | 0.00 | 0.00 | 27 | 1010.0 |
| 20260905043904 | 64 | 286 | 4.0 | 9.0 | 0.00 | 0.00 | 0.00 | 27 | 1010.0 |
| 20260905043804 | 64 | 276 | 6.0 | 9.0 | 0.00 | 0.00 | 0.00 | 27 | 1009.9 |
| 20260905043704 | 64 | 247 | 4.0 | 9.0 | 0.00 | 0.00 | 0.00 | 27 | 1009.9 |
| 20260905043603 | 64 | 266 | 4.0 | 9.0 | 0.00 | 0.00 | 0.00 | 27 | 1009.9 |
| 20260905043504 | 65 | 293 | 4.0 | 8.0 | 0.00 | 0.00 | 0.00 | 27 | 1009.9 |
| 20260905043404 | 65 | 326 | 4.0 | 9.0 | 0.00 | 0.00 | 0.00 | 27 | 1010.0 |
| 20260905043304 | 65 | 342 | 2.0 | 9.0 | 0.00 | 0.00 | 0.00 | 27 | 1009.9 |
| 20260905043204 | 65 | 336 | 2.0 | 9.0 | 0.00 | 0.00 | 0.00 | 27 | 1009.8 |
| 20260905043104 | 65 | 319 | 1.0 | 9.0 | 0.00 | 0.00 | 0.00 | 27 | 1010.0 |
| 20260905043003 | 65 | 316 | 1.0 | 9.0 | 0.00 | 0.00 | 0.00 | 27 | 1010.0 |
| 20260905042903 | 65 | 309 | 2.0 | 9.0 | 0.00 | 0.00 | 0.00 | 27 | 1009.9 |
| 20260905042804 | 65 | 296 | 2.0 | 9.0 | 0.00 | 0.00 | 0.00 | 26 | 1009.9 |
| 20260905042704 | 65 | 291 | 2.0 | 9.0 | 0.00 | 0.00 | 0.00 | 26 | 1009.8 |
| 20260905042603 | 65 | 277 | 4.0 | 9.0 | 0.00 | 0.00 | 0.00 | 26 | 1009.9 |
| 20260905042003 | 66 | 239 | 4.0 | 15.0 | 0.00 | 0.00 | 0.00 | 26 | 1009.9 |
| 20260905041904 | 66 | 245 | 4.0 | 15.0 | 0.00 | 0.00 | 0.00 | 26 | 1009.8 |
| 20260905041804 | 66 | 262 | 4.0 | 15.0 | 0.00 | 0.00 | 0.00 | 26 | 1009.9 |
| 20260905041704 | 66 | 302 | 4.0 | 15.0 | 0.00 | 0.00 | 0.00 | 25 | 1009.8 |
| 20260905041603 | 66 | 304 | 4.0 | 15.0 | 0.00 | 0.00 | 0.00 | 25 | 1009.8 |
| 20260905041503 | 66 | 284 | 3.0 | 15.0 | 0.00 | 0.00 | 0.00 | 25 | 1009.8 |
| 20260905041404 | 66 | 272 | 4.0 | 15.0 | 0.00 | 0.00 | 0.00 | 24 | 1009.9 |
| 20260905041304 | 66 | 262 | 3.0 | 15.0 | 0.00 | 0.00 | 0.00 | 24 | 1009.8 |
| 20260905041203 | 66 | 265 | 5.0 | 15.0 | 0.00 | 0.00 | 0.00 | 24 | 1009.8 |
| 20260905041103 | 66 | 272 | 8.0 | 14.0 | 0.00 | 0.00 | 0.00 | 24 | 1009.8 |
| 20260905041004 | 66 | 275 | 4.0 | 11.0 | 0.00 | 0.00 | 0.00 | 25 | 1009.8 |
| 20260905040904 | 66 | 274 | 3.0 | 10.0 | 0.00 | 0.00 | 0.00 | 25 | 1009.8 |
| 20260905040803 | 66 | 276 | 3.0 | 12.0 | 0.00 | 0.00 | 0.00 | 25 | 1009.8 |
| 20260905040703 | 66 | 265 | 5.0 | 15.0 | 0.00 | 0.00 | 0.00 | 25 | 1009.7 |
| 20260905040604 | 66 | 267 | 5.0 | 15.0 | 0.00 | 0.00 | 0.00 | 25 | 1009.8 |
| 20260905040504 | 66 | 262 | 5.0 | 15.0 | 0.00 | 0.00 | 0.00 | 25 | 1009.8 |
| 20260905040404 | 66 | 256 | 5.0 | 15.0 | 0.00 | 0.00 | 0.00 | 25 | 1009.7 |
| 20260905040303 | 66 | 257 | 5.0 | 15.0 | 0.00 | 0.00 | 0.00 | 25 | 1009.8 |
| 20260905040204 | 66 | 252 | 5.0 | 15.0 | 0.00 | 0.00 | 0.00 | 25 | 1009.8 |
| 20260905035604 | 66 | 230 | 4.0 | 11.0 | 0.00 | 0.00 | 0.00 | 26 | 1009.7 |
| 20260905035503 | 66 | 234 | 5.0 | 11.0 | 0.00 | 0.00 | 0.00 | 25 | 1009.7 |
| 20260905035403 | 66 | 237 | 3.0 | 11.0 | 0.00 | 0.00 | 0.00 | 25 | 1009.6 |
| 20260905035306 | 66 | 222 | 2.0 | 11.0 | 0.00 | 0.00 | 0.00 | 25 | 1009.7 |
| 20260905035204 | 66 | 219 | 4.0 | 11.0 | 0.00 | 0.00 | 0.00 | 24 | 1009.7 |
| 20260905035104 | 66 | 217 | 3.0 | 11.0 | 0.00 | 0.00 | 0.00 | 25 | 1009.6 |
| 20260905035003 | 66 | 209 | 4.0 | 11.0 | 0.00 | 0.00 | 0.00 | 24 | 1009.6 |
| 20260905034904 | 66 | 218 | 4.0 | 11.0 | 0.00 | 0.00 | 0.00 | 24 | 1009.6 |
| 20260905034804 | 66 | 215 | 2.0 | 10.0 | 0.00 | 0.00 | 0.00 | 24 | 1009.6 |
| 20260905034704 | 66 | 207 | 3.0 | 10.0 | 0.00 | 0.00 | 0.00 | 25 | 1009.6 |
| 20260905034603 | 66 | 200 | 3.0 | 10.0 | 0.00 | 0.00 | 0.00 | 24 | 1009.6 |
| 20260905034504 | 66 | 196 | 3.0 | 10.0 | 0.00 | 0.00 | 0.00 | 24 | 1009.6 |
| 20260905034404 | 66 | 199 | 2.0 | 10.0 | 0.00 | 0.00 | 0.00 | 24 | 1009.5 |
| 20260905034303 | 66 | 203 | 5.0 | 10.0 | 0.00 | 0.00 | 0.00 | 24 | 1009.7 |
| 20260905034203 | 66 | 194 | 8.0 | 10.0 | 0.00 | 0.00 | 0.00 | 24 | 1009.5 |
| 20260905034104 | 66 | 183 | 3.0 | 8.0 | 0.00 | 0.00 | 0.00 | 25 | 1009.6 |
| 20260905034004 | 66 | 185 | 3.0 | 7.0 | 0.00 | 0.00 | 0.00 | 24 | 1009.5 |
| 20260905033904 | 66 | 184 | 2.0 | 8.0 | 0.00 | 0.00 | 0.00 | 24 | 1009.6 |
| 20260905033803 | 67 | 193 | 1.0 | 8.0 | 0.00 | 0.00 | 0.00 | 24 | 1009.6 |
| 20260905033704 | 67 | 196 | 2.0 | 8.0 | 0.00 | 0.00 | 0.00 | 24 | 1009.6 |
| 20260905033604 | 67 | 203 | 2.0 | 9.0 | 0.00 | 0.00 | 0.00 | 24 | 1009.6 |
| 20260905033504 | 67 | 201 | 2.0 | 9.0 | 0.00 | 0.00 | 0.00 | 24 | 1009.6 |
| 20260905033404 | 67 | 200 | 2.0 | 9.0 | 0.00 | 0.00 | 0.00 | 24 | 1009.6 |
| 20260905033304 | 67 | 204 | 2.0 | 9.0 | 0.00 | 0.00 | 0.00 | 24 | 1009.6 |
| 20260905033203 | 67 | 214 | 2.0 | 9.0 | 0.00 | 0.00 | 0.00 | 24 | 1009.7 |
| 20260905033103 | 67 | 227 | 2.0 | 9.0 | 0.00 | 0.00 | 0.00 | 24 | 1009.7 |
| 20260905033004 | 67 | 239 | 2.0 | 9.0 | 0.00 | 0.00 | 0.00 | 24 | 1009.7 |
| 20260905032803 | 67 | 263 | 4.0 | 11.0 | 0.00 | 0.00 | 0.00 | 24 | 1009.6 |
| 20260905032703 | 67 | 267 | 5.0 | 11.0 | 0.00 | 0.00 | 0.00 | 24 | 1009.6 |
| 20260905032604 | 67 | 252 | 4.0 | 11.0 | 0.00 | 0.00 | 0.00 | 24 | 1009.6 |
| 20260905032504 | 67 | 263 | 4.0 | 11.0 | 0.00 | 0.00 | 0.00 | 24 | 1009.5 |
| 20260905032403 | 67 | 248 | 2.0 | 11.0 | 0.00 | 0.00 | 0.00 | 24 | 1009.6 |
| 20260905032306 | 67 | 240 | 3.0 | 11.0 | 0.00 | 0.00 | 0.00 | 24 | 1009.5 |
| 20260905032204 | 67 | 223 | 2.0 | 11.0 | 0.00 | 0.00 | 0.00 | 23 | 1009.6 |
| 20260905032103 | 67 | 207 | 2.0 | 11.0 | 0.00 | 0.00 | 0.00 | 23 | 1009.6 |
| 20260905032003 | 67 | 203 | 4.0 | 11.0 | 0.00 | 0.00 | 0.00 | 23 | 1009.5 |
| 20260905031904 | 67 | 207 | 4.0 | 11.0 | 0.00 | 0.00 | 0.00 | 23 | 1009.5 |
| 20260905031804 | 67 | 214 | 6.0 | 11.0 | 0.00 | 0.00 | 0.00 | 23 | 1009.4 |
| 20260905031703 | 67 | 219 | 2.0 | 10.0 | 0.00 | 0.00 | 0.00 | 23 | 1009.4 |
| 20260905031604 | 67 | 232 | 2.0 | 10.0 | 0.00 | 0.00 | 0.00 | 23 | 1009.5 |
| 20260905031504 | 67 | 237 | 2.0 | 14.0 | 0.00 | 0.00 | 0.00 | 23 | 1009.3 |
| 20260905031403 | 67 | 246 | 5.0 | 14.0 | 0.00 | 0.00 | 0.00 | 23 | 1009.5 |
| 20260905031304 | 67 | 249 | 4.0 | 14.0 | 0.00 | 0.00 | 0.00 | 23 | 1009.5 |
| 20260905031204 | 67 | 247 | 3.0 | 14.0 | 0.00 | 0.00 | 0.00 | 23 | 1009.4 |
| 20260905031103 | 67 | 249 | 4.0 | 14.0 | 0.00 | 0.00 | 0.00 | 23 | 1009.4 |
| 20260905031003 | 67 | 252 | 2.0 | 14.0 | 0.00 | 0.00 | 0.00 | 23 | 1009.4 |
| 20260905030904 | 67 | 257 | 4.0 | 14.0 | 0.00 | 0.00 | 0.00 | 22 | 1009.3 |
| 20260905030804 | 67 | 254 | 6.0 | 14.0 | 0.00 | 0.00 | 0.00 | 23 | 1009.2 |
| 20260905030703 | 67 | 258 | 4.0 | 14.0 | 0.00 | 0.00 | 0.00 | 22 | 1009.1 |
| 20260905030503 | 67 | 264 | 8.0 | 14.0 | 0.00 | 0.00 | 0.00 | 23 | 1009.2 |
| 20260905030404 | 67 | 260 | 5.0 | 14.0 | 0.00 | 0.00 | 0.00 | 23 | 1009.2 |
| 20260905030304 | 67 | 264 | 7.0 | 14.0 | 0.00 | 0.00 | 0.00 | 23 | 1009.2 |
| 20260905030204 | 67 | 270 | 7.0 | 14.0 | 0.00 | 0.00 | 0.00 | 23 | 1009.1 |
| 20260905030004 | 67 | 271 | 7.0 | 14.0 | 0.00 | 0.00 | 0.00 | 23 | 1009.1 |
| 20260905025904 | 67 | 260 | 6.0 | 14.0 | 0.00 | 0.00 | 0.00 | 23 | 1009.3 |
| 20260905025803 | 67 | 260 | 6.0 | 14.0 | 0.00 | 0.00 | 0.00 | 23 | 1009.3 |
| 20260905025703 | 67 | 250 | 2.0 | 14.0 | 0.00 | 0.00 | 0.00 | 23 | 1009.2 |
| 20260905025604 | 67 | 241 | 8.0 | 14.0 | 0.00 | 0.00 | 0.00 | 23 | 1009.3 |
| 20260905025504 | 67 | 232 | 9.0 | 14.0 | 0.00 | 0.00 | 0.00 | 23 | 1009.3 |
| 20260905025403 | 67 | 233 | 2.0 | 8.0 | 0.00 | 0.00 | 0.00 | 23 | 1009.2 |
| 20260905025306 | 67 | 231 | 4.0 | 8.0 | 0.00 | 0.00 | 0.00 | 23 | 1009.3 |
| 20260905025203 | 67 | 229 | 2.0 | 7.0 | 0.00 | 0.00 | 0.00 | 23 | 1009.1 |
| 20260905025104 | 67 | 228 | 2.0 | 9.0 | 0.00 | 0.00 | 0.00 | 23 | 1009.1 |
| 20260905025004 | 67 | 237 | 2.0 | 9.0 | 0.00 | 0.00 | 0.00 | 23 | 1009.2 |
| 20260905024903 | 67 | 241 | 2.0 | 9.0 | 0.00 | 0.00 | 0.00 | 23 | 1009.0 |
| 20260905024804 | 67 | 247 | 2.0 | 9.0 | 0.00 | 0.00 | 0.00 | 23 | 1009.1 |
| 20260905024704 | 67 | 241 | 2.0 | 11.0 | 0.00 | 0.00 | 0.00 | 23 | 1009.0 |
| 20260905024604 | 67 | 245 | 2.0 | 12.0 | 0.00 | 0.00 | 0.00 | 23 | 1008.8 |
| 20260905024504 | 67 | 243 | 2.0 | 15.0 | 0.00 | 0.00 | 0.00 | 23 | 1009.0 |
| 20260905024404 | 67 | 245 | 2.0 | 15.0 | 0.00 | 0.00 | 0.00 | 23 | 1008.9 |
| 20260905024304 | 67 | 242 | 3.0 | 15.0 | 0.00 | 0.00 | 0.00 | 23 | 1008.8 |
| 20260905024203 | 67 | 240 | 4.0 | 15.0 | 0.00 | 0.00 | 0.00 | 23 | 1008.9 |
| 20260905024103 | 67 | 240 | 5.0 | 15.0 | 0.00 | 0.00 | 0.00 | 24 | 1008.8 |
| 20260905024004 | 68 | 236 | 5.0 | 15.0 | 0.00 | 0.00 | 0.00 | 23 | 1008.7 |
| 20260905023903 | 67 | 238 | 5.0 | 15.0 | 0.00 | 0.00 | 0.00 | 23 | 1008.8 |
| 20260905023803 | 67 | 237 | 4.0 | 15.0 | 0.00 | 0.00 | 0.00 | 24 | 1008.8 |
| 20260905023704 | 68 | 239 | 7.0 | 15.0 | 0.00 | 0.00 | 0.00 | 24 | 1008.7 |
| 20260905023604 | 68 | 235 | 8.0 | 15.0 | 0.00 | 0.00 | 0.00 | 24 | 1008.7 |
| 20260905023503 | 68 | 241 | 6.0 | 13.0 | 0.00 | 0.00 | 0.00 | 24 | 1008.7 |
| 20260905023403 | 68 | 246 | 5.0 | 13.0 | 0.00 | 0.00 | 0.00 | 24 | 1008.8 |
| 20260905023304 | 68 | 254 | 5.0 | 13.0 | 0.00 | 0.00 | 0.00 | 24 | 1008.7 |
| 20260905023204 | 68 | 264 | 8.0 | 13.0 | 0.00 | 0.00 | 0.00 | 24 | 1008.7 |
| 20260905023103 | 68 | 267 | 8.0 | 15.0 | 0.00 | 0.00 | 0.00 | 24 | 1008.7 |
| 20260905023003 | 68 | 274 | 8.0 | 15.0 | 0.00 | 0.00 | 0.00 | 24 | 1008.7 |
| 20260905022904 | 68 | 273 | 7.0 | 15.0 | 0.00 | 0.00 | 0.00 | 24 | 1008.6 |
| 20260905022804 | 68 | 274 | 3.0 | 15.0 | 0.00 | 0.00 | 0.00 | 24 | 1008.7 |
| 20260905022703 | 68 | 278 | 5.0 | 15.0 | 0.00 | 0.00 | 0.00 | 24 | 1008.6 |
| 20260905022603 | 68 | 282 | 5.0 | 15.0 | 0.00 | 0.00 | 0.00 | 24 | 1008.6 |
| 20260905022504 | 68 | 276 | 6.0 | 15.0 | 0.00 | 0.00 | 0.00 | 25 | 1008.6 |
| 20260905022404 | 67 | 262 | 5.0 | 15.0 | 0.00 | 0.00 | 0.00 | 25 | 1008.7 |
| 20260905022306 | 67 | 249 | 5.0 | 15.0 | 0.00 | 0.00 | 0.00 | 25 | 1008.6 |
| 20260905022203 | 67 | 235 | 6.0 | 15.0 | 0.00 | 0.00 | 0.00 | 25 | 1008.6 |
| 20260905022104 | 68 | 232 | 10.0 | 15.0 | 0.00 | 0.00 | 0.00 | 25 | 1008.6 |
| 20260905022004 | 68 | 201 | 2.0 | 6.0 | 0.00 | 0.00 | 0.00 | 26 | 1008.7 |
| 20260905021903 | 68 | 0 | 0.0 | 6.0 | 0.00 | 0.00 | 0.00 | 26 | 1008.6 |
| 20260905021803 | 68 | 207 | 1.0 | 6.0 | 0.00 | 0.00 | 0.00 | 26 | 1008.6 |
| 20260905021704 | 68 | 0 | 0.0 | 6.0 | 0.00 | 0.00 | 0.00 | 26 | 1008.6 |
| 20260905021604 | 68 | 206 | 4.0 | 6.0 | 0.00 | 0.00 | 0.00 | 26 | 1008.6 |
| 20260905021504 | 68 | 160 | 4.0 | 6.0 | 0.00 | 0.00 | 0.00 | 26 | 1008.6 |
| 20260905021404 | 68 | 0 | 0.0 | 10.0 | 0.00 | 0.00 | 0.00 | 26 | 1008.7 |
| 20260905021303 | 68 | 215 | 2.0 | 10.0 | 0.00 | 0.00 | 0.00 | 26 | 1008.7 |
| 20260905021204 | 68 | 246 | 2.0 | 12.0 | 0.00 | 0.00 | 0.00 | 26 | 1008.6 |
| 20260905021104 | 68 | 230 | 2.0 | 12.0 | 0.00 | 0.00 | 0.00 | 26 | 1008.5 |
| 20260905021003 | 68 | 226 | 2.0 | 12.0 | 0.00 | 0.00 | 0.00 | 26 | 1008.8 |
| 20260905020904 | 68 | 222 | 1.0 | 12.0 | 0.00 | 0.00 | 0.00 | 26 | 1008.8 |
| 20260905020804 | 68 | 208 | 1.0 | 12.0 | 0.00 | 0.00 | 0.00 | 26 | 1008.7 |
| 20260905020704 | 68 | 222 | 1.0 | 12.0 | 0.00 | 0.00 | 0.00 | 26 | 1008.8 |
| 20260905020604 | 69 | 228 | 1.0 | 12.0 | 0.00 | 0.00 | 0.00 | 25 | 1008.8 |
| 20260905020503 | 69 | 243 | 2.0 | 15.0 | 0.00 | 0.00 | 0.00 | 25 | 1008.7 |
| 20260905020403 | 69 | 234 | 4.0 | 15.0 | 0.00 | 0.00 | 0.00 | 25 | 1008.8 |
| 20260905020304 | 69 | 244 | 4.0 | 15.0 | 0.00 | 0.00 | 0.00 | 25 | 1008.7 |
| 20260905020204 | 69 | 235 | 4.0 | 15.0 | 0.00 | 0.00 | 0.00 | 26 | 1008.7 |
| 20260905020104 | 69 | 242 | 1.0 | 15.0 | 0.00 | 0.00 | 0.00 | 25 | 1008.6 |
| 20260905020003 | 69 | 243 | 1.0 | 15.0 | 0.00 | 0.00 | 0.00 | 25 | 1008.6 |
| 20260905015904 | 69 | 247 | 6.0 | 15.0 | 0.00 | 0.00 | 0.00 | 25 | 1008.6 |
| 20260905015804 | 70 | 252 | 7.0 | 15.0 | 0.00 | 0.00 | 0.00 | 25 | 1008.7 |
| 20260905015703 | 70 | 252 | 4.0 | 15.0 | 0.00 | 0.00 | 0.00 | 24 | 1008.8 |
| 20260905015603 | 70 | 255 | 6.0 | 15.0 | 0.00 | 0.00 | 0.00 | 24 | 1008.6 |
| 20260905015504 | 70 | 242 | 4.0 | 11.0 | 0.00 | 0.00 | 0.00 | 23 | 1008.7 |
| 20260905015404 | 70 | 249 | 2.0 | 11.0 | 0.00 | 0.00 | 0.00 | 23 | 1008.6 |
| 20260905015306 | 71 | 263 | 2.0 | 14.0 | 0.00 | 0.00 | 0.00 | 23 | 1008.5 |
| 20260905015203 | 71 | 270 | 6.0 | 14.0 | 0.00 | 0.00 | 0.00 | 23 | 1008.5 |
| 20260905015104 | 71 | 272 | 4.0 | 17.0 | 0.00 | 0.00 | 0.00 | 23 | 1008.5 |
| 20260905015004 | 71 | 274 | 4.0 | 17.0 | 0.00 | 0.00 | 0.00 | 23 | 1008.6 |
| 20260905014903 | 71 | 268 | 7.0 | 17.0 | 0.00 | 0.00 | 0.00 | 23 | 1008.5 |
| 20260905014803 | 71 | 264 | 4.0 | 17.0 | 0.00 | 0.00 | 0.00 | 22 | 1008.4 |
| 20260905014703 | 71 | 262 | 2.0 | 17.0 | 0.00 | 0.00 | 0.00 | 22 | 1008.4 |
| 20260905014604 | 71 | 261 | 4.0 | 17.0 | 0.00 | 0.00 | 0.00 | 22 | 1008.4 |
| 20260905014403 | 71 | 259 | 8.0 | 17.0 | 0.00 | 0.00 | 0.00 | 22 | 1008.5 |
| 20260905014304 | 71 | 255 | 6.0 | 17.0 | 0.00 | 0.00 | 0.00 | 22 | 1008.3 |
| 20260905014204 | 72 | 250 | 9.0 | 17.0 | 0.00 | 0.00 | 0.00 | 21 | 1008.4 |
| 20260905014103 | 72 | 241 | 13.0 | 17.0 | 0.00 | 0.00 | 0.00 | 21 | 1008.3 |
| 20260905014004 | 72 | 236 | 8.0 | 17.0 | 0.00 | 0.00 | 0.00 | 21 | 1008.4 |
| 20260905013904 | 72 | 236 | 9.0 | 17.0 | 0.00 | 0.00 | 0.00 | 21 | 1008.4 |
| 20260905013803 | 72 | 238 | 8.0 | 17.0 | 0.00 | 0.00 | 0.00 | 20 | 1008.3 |
| 20260905013704 | 72 | 241 | 6.0 | 17.0 | 0.00 | 0.00 | 0.00 | 20 | 1008.2 |
| 20260905013604 | 72 | 231 | 10.0 | 17.0 | 0.00 | 0.00 | 0.00 | 19 | 1008.4 |
| 20260905013503 | 72 | 236 | 8.0 | 15.0 | 0.00 | 0.00 | 0.00 | 20 | 1008.3 |
| 20260905013403 | 72 | 207 | 8.0 | 15.0 | 0.00 | 0.00 | 0.00 | 20 | 1008.2 |
| 20260905013304 | 72 | 202 | 4.0 | 13.0 | 0.00 | 0.00 | 0.00 | 20 | 1008.2 |
| 20260905013204 | 72 | 162 | 4.0 | 10.0 | 0.00 | 0.00 | 0.00 | 21 | 1008.3 |
| 20260905013103 | 73 | 170 | 1.0 | 10.0 | 0.00 | 0.00 | 0.00 | 21 | 1008.5 |
| 20260905013003 | 73 | 184 | 1.0 | 10.0 | 0.00 | 0.00 | 0.00 | 21 | 1008.5 |
| 20260905012904 | 73 | 217 | 2.0 | 10.0 | 0.00 | 0.00 | 0.00 | 20 | 1008.3 |
| 20260905012804 | 73 | 232 | 2.0 | 13.0 | 0.00 | 0.00 | 0.00 | 20 | 1008.2 |
| 20260905012703 | 73 | 217 | 1.0 | 13.0 | 0.00 | 0.00 | 0.00 | 21 | 1008.3 |
| 20260905012204 | 73 | 241 | 4.0 | 13.0 | 0.00 | 0.00 | 0.00 | 21 | 1008.1 |
| 20260905012103 | 73 | 236 | 2.0 | 13.0 | 0.00 | 0.00 | 0.00 | 21 | 1008.2 |
| 20260905012004 | 73 | 242 | 5.0 | 13.0 | 0.00 | 0.00 | 0.00 | 21 | 1008.3 |
| 20260905011903 | 73 | 241 | 6.0 | 13.0 | 0.00 | 0.00 | 0.00 | 20 | 1008.3 |
| 20260905011803 | 73 | 247 | 8.0 | 21.0 | 0.00 | 0.00 | 0.00 | 20 | 1008.2 |
| 20260905011703 | 73 | 241 | 2.0 | 21.0 | 0.00 | 0.00 | 0.00 | 21 | 1008.2 |
| 20260905011604 | 73 | 245 | 3.0 | 21.0 | 0.00 | 0.00 | 0.00 | 21 | 1008.3 |
| 20260905011503 | 73 | 242 | 3.0 | 21.0 | 0.00 | 0.00 | 0.00 | 21 | 1008.3 |
| 20260905011403 | 73 | 238 | 4.0 | 21.0 | 0.00 | 0.00 | 0.00 | 22 | 1008.3 |
| 20260905011303 | 73 | 243 | 2.0 | 22.0 | 0.00 | 0.00 | 0.00 | 22 | 1008.2 |
| 20260905011204 | 72 | 247 | 4.0 | 22.0 | 0.00 | 0.00 | 0.00 | 21 | 1008.3 |
| 20260905011104 | 72 | 254 | 8.0 | 22.0 | 0.00 | 0.00 | 0.00 | 22 | 1008.3 |
| 20260905010903 | 72 | 257 | 8.0 | 22.0 | 0.00 | 0.00 | 0.00 | 22 | 1008.3 |
| 20260905010804 | 72 | 256 | 10.0 | 22.0 | 0.00 | 0.00 | 0.00 | 23 | 1008.2 |
| 20260905010703 | 72 | 260 | 9.0 | 22.0 | 0.00 | 0.00 | 0.00 | 22 | 1008.2 |
| 20260905010603 | 72 | 260 | 11.0 | 22.0 | 0.00 | 0.00 | 0.00 | 22 | 1008.1 |
| 20260905010404 | 73 | 271 | 15.0 | 22.0 | 0.00 | 0.00 | 0.00 | 22 | 1008.0 |
| 20260905010304 | 73 | 268 | 12.0 | 20.0 | 0.00 | 0.00 | 0.00 | 22 | 1008.2 |
| 20260905010203 | 73 | 262 | 15.0 | 21.0 | 0.00 | 0.00 | 0.00 | 21 | 1008.0 |
| 20260905010103 | 74 | 255 | 11.0 | 21.0 | 0.00 | 0.00 | 0.00 | 21 | 1008.1 |
| 20260905010004 | 74 | 247 | 15.0 | 21.0 | 0.00 | 0.00 | 0.00 | 21 | 1008.0 |
| 20260905005803 | 74 | 255 | 3.0 | 25.0 | 0.00 | 0.00 | 0.00 | 21 | 1008.0 |
| 20260905005703 | 74 | 250 | 4.0 | 25.0 | 0.00 | 0.00 | 0.00 | 20 | 1008.1 |
| 20260905005604 | 74 | 246 | 5.0 | 25.0 | 0.00 | 0.00 | 0.00 | 20 | 1008.1 |
| 20260905005504 | 74 | 248 | 9.0 | 25.0 | 0.00 | 0.00 | 0.00 | 21 | 1008.0 |
| 20260905005403 | 74 | 245 | 5.0 | 25.0 | 0.00 | 0.00 | 0.00 | 21 | 1008.1 |
| 20260905004903 | 74 | 258 | 17.0 | 25.0 | 0.00 | 0.00 | 0.00 | 20 | 1007.9 |
| 20260905004804 | 74 | 253 | 11.0 | 25.0 | 0.00 | 0.00 | 0.00 | 20 | 1007.9 |
| 20260905004703 | 74 | 260 | 13.0 | 27.0 | 0.00 | 0.00 | 0.00 | 20 | 1008.0 |
| 20260905004606 | 74 | 264 | 11.0 | 27.0 | 0.00 | 0.00 | 0.00 | 19 | 1008.0 |
| 20260905004504 | 74 | 264 | 11.0 | 27.0 | 0.00 | 0.00 | 0.00 | 19 | 1008.0 |
| 20260905004403 | 74 | 266 | 7.0 | 27.0 | 0.00 | 0.00 | 0.00 | 19 | 1007.9 |
| 20260905004303 | 74 | 267 | 11.0 | 27.0 | 0.00 | 0.00 | 0.00 | 19 | 1007.9 |
| 20260905004204 | 74 | 266 | 18.0 | 27.0 | 0.00 | 0.00 | 0.00 | 18 | 1007.8 |
| 20260905004103 | 74 | 266 | 12.0 | 27.0 | 0.00 | 0.00 | 0.00 | 19 | 1007.9 |
| 20260905004003 | 74 | 264 | 12.0 | 27.0 | 0.00 | 0.00 | 0.00 | 18 | 1007.9 |
| 20260905003904 | 75 | 269 | 15.0 | 27.0 | 0.00 | 0.00 | 0.00 | 18 | 1007.9 |
| 20260905003803 | 75 | 269 | 13.0 | 27.0 | 0.00 | 0.00 | 0.00 | 18 | 1007.9 |
| 20260905003703 | 75 | 265 | 19.0 | 27.0 | 0.00 | 0.00 | 0.00 | 17 | 1007.8 |
| 20260905003603 | 75 | 262 | 13.0 | 23.0 | 0.00 | 0.00 | 0.00 | 17 | 1007.9 |
| 20260905003504 | 75 | 259 | 13.0 | 23.0 | 0.00 | 0.00 | 0.00 | 18 | 1007.9 |
| 20260905003403 | 75 | 259 | 8.0 | 19.0 | 0.00 | 0.00 | 0.00 | 18 | 1008.0 |
| 20260905003303 | 76 | 262 | 11.0 | 19.0 | 0.00 | 0.00 | 0.00 | 18 | 1008.1 |
| 20260905003203 | 75 | 268 | 8.0 | 19.0 | 0.00 | 0.00 | 0.00 | 18 | 1008.0 |
| 20260905003004 | 75 | 249 | 8.0 | 19.0 | 0.00 | 0.00 | 0.00 | 18 | 1007.9 |
| 20260905002903 | 76 | 241 | 8.0 | 19.0 | 0.00 | 0.00 | 0.00 | 18 | 1007.9 |
| 20260905002803 | 76 | 241 | 13.0 | 23.0 | 0.00 | 0.00 | 0.00 | 18 | 1007.8 |
| 20260905002703 | 76 | 242 | 9.0 | 23.0 | 0.00 | 0.00 | 0.00 | 18 | 1007.9 |
| 20260905002604 | 76 | 240 | 9.0 | 23.0 | 0.00 | 0.00 | 0.00 | 18 | 1007.9 |
| 20260905002504 | 76 | 239 | 9.0 | 23.0 | 0.00 | 0.00 | 0.00 | 18 | 1007.9 |
| 20260905002403 | 76 | 232 | 5.0 | 23.0 | 0.00 | 0.00 | 0.00 | 18 | 1007.9 |
| 20260905002306 | 76 | 231 | 5.0 | 23.0 | 0.00 | 0.00 | 0.00 | 18 | 1007.9 |
| 20260905002203 | 76 | 228 | 4.0 | 23.0 | 0.00 | 0.00 | 0.00 | 18 | 1007.9 |
| 20260905002103 | 76 | 226 | 2.0 | 23.0 | 0.00 | 0.00 | 0.00 | 18 | 1008.0 |
| 20260905002003 | 76 | 229 | 11.0 | 23.0 | 0.00 | 0.00 | 0.00 | 18 | 1008.2 |
| 20260905001904 | 76 | 225 | 15.0 | 23.0 | 0.00 | 0.00 | 0.00 | 18 | 1007.8 |
| 20260905001803 | 76 | 213 | 7.0 | 16.0 | 0.00 | 0.00 | 0.00 | 18 | 1008.0 |
| 20260905001703 | 76 | 221 | 7.0 | 16.0 | 0.00 | 0.00 | 0.00 | 18 | 1008.0 |
| 20260905001603 | 76 | 224 | 4.0 | 16.0 | 0.00 | 0.00 | 0.00 | 19 | 1008.0 |
| 20260905001504 | 76 | 233 | 4.0 | 16.0 | 0.00 | 0.00 | 0.00 | 19 | 1008.0 |
| 20260905001404 | 76 | 244 | 3.0 | 16.0 | 0.00 | 0.00 | 0.00 | 18 | 1008.2 |
| 20260905001303 | 76 | 237 | 3.0 | 16.0 | 0.00 | 0.00 | 0.00 | 18 | 1008.0 |
| 20260905001203 | 76 | 242 | 4.0 | 16.0 | 0.00 | 0.00 | 0.00 | 18 | 1008.2 |
| 20260905001104 | 76 | 249 | 7.0 | 16.0 | 0.00 | 0.00 | 0.00 | 18 | 1008.1 |
| 20260905001004 | 76 | 250 | 4.0 | 16.0 | 0.00 | 0.00 | 0.00 | 18 | 1008.0 |
| 20260905000903 | 76 | 259 | 5.0 | 20.0 | 0.00 | 0.00 | 0.00 | 18 | 1008.1 |
| 20260905000803 | 76 | 266 | 8.0 | 20.0 | 0.00 | 0.00 | 0.00 | 18 | 1008.0 |
| 20260905000704 | 76 | 266 | 4.0 | 20.0 | 0.00 | 0.00 | 0.00 | 18 | 1007.9 |
| 20260905000604 | 76 | 270 | 4.0 | 20.0 | 0.00 | 0.00 | 0.00 | 18 | 1007.9 |
| 20260905000503 | 76 | 272 | 7.0 | 20.0 | 0.00 | 0.00 | 0.00 | 18 | 1008.0 |
| 20260905000404 | 76 | 264 | 8.0 | 20.0 | 0.00 | 0.00 | 0.00 | 18 | 1008.0 |
| 20260905000304 | 76 | 268 | 8.0 | 20.0 | 0.00 | 0.00 | 0.00 | 18 | 1008.0 |
| 20260905000204 | 76 | 265 | 5.0 | 20.0 | 0.00 | 0.00 | 0.00 | 18 | 1008.1 |
| 20260905000104 | 76 | 262 | 9.0 | 20.0 | 0.00 | 0.00 | 0.00 | 17 | 1008.0 |
| 20260905000003 | 76 | 269 | 14.0 | 20.0 | 0.00 | 0.00 | 0.00 | 17 | 1008.1 |
| 20260904235904 | 77 | 273 | 8.0 | 17.0 | 0.00 | 0.00 | 0.00 | 17 | 1007.9 |
| 20260904235804 | 77 | 270 | 11.0 | 17.0 | 0.00 | 0.00 | 0.00 | 17 | 1007.9 |
| 20260904235703 | 77 | 270 | 6.0 | 15.0 | 0.00 | 0.00 | 0.00 | 17 | 1007.8 |
| 20260904235604 | 77 | 265 | 7.0 | 15.0 | 0.00 | 0.00 | 0.00 | 17 | 1008.1 |
| 20260904235504 | 77 | 261 | 4.0 | 15.0 | 0.00 | 0.00 | 0.00 | 17 | 1008.0 |
| 20260904235004 | 77 | 277 | 7.0 | 14.0 | 0.00 | 0.00 | 0.00 | 17 | 1008.0 |
| 20260904234903 | 77 | 277 | 8.0 | 14.0 | 0.00 | 0.00 | 0.00 | 17 | 1008.0 |
| 20260904234804 | 77 | 281 | 4.0 | 14.0 | 0.00 | 0.00 | 0.00 | 17 | 1007.9 |
| 20260904234703 | 77 | 280 | 4.0 | 14.0 | 0.00 | 0.00 | 0.00 | 17 | 1007.9 |
| 20260904234604 | 77 | 286 | 11.0 | 14.0 | 0.00 | 0.00 | 0.00 | 17 | 1008.0 |
| 20260904234504 | 77 | 292 | 11.0 | 14.0 | 0.00 | 0.00 | 0.00 | 17 | 1007.9 |
| 20260904234403 | 77 | 294 | 6.0 | 12.0 | 0.00 | 0.00 | 0.00 | 17 | 1007.9 |
| 20260904234304 | 77 | 295 | 5.0 | 12.0 | 0.00 | 0.00 | 0.00 | 17 | 1007.9 |
| 20260904234204 | 77 | 291 | 4.0 | 12.0 | 0.00 | 0.00 | 0.00 | 17 | 1007.8 |
| 20260904234103 | 77 | 290 | 6.0 | 12.0 | 0.00 | 0.00 | 0.00 | 17 | 1008.0 |
| 20260904234004 | 77 | 286 | 4.0 | 12.0 | 0.00 | 0.00 | 0.00 | 17 | 1007.9 |
| 20260904233904 | 77 | 286 | 4.0 | 12.0 | 0.00 | 0.00 | 0.00 | 16 | 1008.0 |
| 20260904233803 | 77 | 284 | 4.0 | 13.0 | 0.00 | 0.00 | 0.00 | 17 | 1007.9 |
| 20260904233704 | 77 | 284 | 6.0 | 13.0 | 0.00 | 0.00 | 0.00 | 17 | 1007.9 |
| 20260904233603 | 78 | 283 | 6.0 | 21.0 | 0.00 | 0.00 | 0.00 | 17 | 1007.9 |
| 20260904233504 | 78 | 279 | 8.0 | 21.0 | 0.00 | 0.00 | 0.00 | 17 | 1007.9 |
| 20260904233404 | 78 | 282 | 4.0 | 21.0 | 0.00 | 0.00 | 0.00 | 17 | 1007.9 |
| 20260904232803 | 78 | 275 | 8.0 | 21.0 | 0.00 | 0.00 | 0.00 | 17 | 1007.8 |
| 20260904232703 | 78 | 275 | 10.0 | 21.0 | 0.00 | 0.00 | 0.00 | 17 | 1007.9 |
| 20260904232604 | 78 | 271 | 12.0 | 21.0 | 0.00 | 0.00 | 0.00 | 17 | 1007.8 |
| 20260904232504 | 78 | 271 | 8.0 | 16.0 | 0.00 | 0.00 | 0.00 | 17 | 1007.8 |
| 20260904232403 | 78 | 265 | 6.0 | 16.0 | 0.00 | 0.00 | 0.00 | 16 | 1007.8 |
| 20260904232306 | 78 | 259 | 11.0 | 16.0 | 0.00 | 0.00 | 0.00 | 16 | 1007.8 |
| 20260904232203 | 78 | 261 | 10.0 | 16.0 | 0.00 | 0.00 | 0.00 | 16 | 1007.7 |
| 20260904232104 | 78 | 256 | 10.0 | 16.0 | 0.00 | 0.00 | 0.00 | 15 | 1007.8 |
| 20260904232003 | 78 | 253 | 8.0 | 21.0 | 0.00 | 0.00 | 0.00 | 16 | 1007.8 |
| 20260904231904 | 79 | 258 | 10.0 | 21.0 | 0.00 | 0.00 | 0.00 | 15 | 1007.8 |
| 20260904231804 | 79 | 258 | 8.0 | 21.0 | 0.00 | 0.00 | 0.00 | 15 | 1007.8 |
| 20260904231703 | 79 | 258 | 7.0 | 21.0 | 0.00 | 0.00 | 0.00 | 15 | 1007.8 |
| 20260904231603 | 79 | 254 | 8.0 | 21.0 | 0.00 | 0.00 | 0.00 | 15 | 1007.7 |
| 20260904231504 | 79 | 243 | 8.0 | 21.0 | 0.00 | 0.00 | 0.00 | 15 | 1007.8 |
| 20260904231403 | 79 | 245 | 11.0 | 21.0 | 0.00 | 0.00 | 0.00 | 15 | 1007.8 |
| 20260904231303 | 78 | 245 | 11.0 | 21.0 | 0.00 | 0.00 | 0.00 | 14 | 1007.7 |
| 20260904231203 | 78 | 241 | 8.0 | 21.0 | 0.00 | 0.00 | 0.00 | 15 | 1007.8 |
| 20260904231104 | 78 | 238 | 9.0 | 21.0 | 0.00 | 0.00 | 0.00 | 15 | 1007.8 |
| 20260904231003 | 79 | 238 | 12.0 | 21.0 | 0.00 | 0.00 | 0.00 | 15 | 1007.7 |
| 20260904230903 | 79 | 233 | 11.0 | 21.0 | 0.00 | 0.00 | 0.00 | 14 | 1007.7 |
| 20260904230804 | 79 | 237 | 11.0 | 21.0 | 0.00 | 0.00 | 0.00 | 14 | 1007.7 |
| 20260904230703 | 79 | 237 | 11.0 | 21.0 | 0.00 | 0.00 | 0.00 | 14 | 1007.7 |
| 20260904230506 | 79 | 254 | 11.0 | 21.0 | 0.00 | 0.00 | 0.00 | 13 | 1007.7 |
| 20260904230405 | 80 | 254 | 10.0 | 21.0 | 0.00 | 0.00 | 0.00 | 13 | 1007.8 |
| 20260904230305 | 80 | 255 | 14.0 | 22.0 | 0.00 | 0.00 | 0.00 | 13 | 1007.7 |
| 20260904230205 | 80 | 254 | 10.0 | 22.0 | 0.00 | 0.00 | 0.00 | 14 | 1007.7 |
| 20260904230105 | 79 | 259 | 13.0 | 22.0 | 0.00 | 0.00 | 0.00 | 14 | 1007.7 |
| 20260904230006 | 79 | 267 | 15.0 | 22.0 | 0.00 | 0.00 | 0.00 | 13 | 1007.7 |
| 20260904225905 | 80 | 273 | 15.0 | 22.0 | 0.00 | 0.00 | 0.00 | 13 | 1007.7 |
| 20260904225806 | 80 | 268 | 10.0 | 22.0 | 0.00 | 0.00 | 0.00 | 14 | 1007.7 |
| 20260904225705 | 80 | 270 | 7.0 | 22.0 | 0.00 | 0.00 | 0.00 | 15 | 1007.7 |
| 20260904225606 | 79 | 267 | 7.0 | 22.0 | 0.00 | 0.00 | 0.00 | 14 | 1007.7 |
| 20260904225505 | 79 | 265 | 10.0 | 22.0 | 0.00 | 0.00 | 0.00 | 13 | 1007.6 |
| 20260904225005 | 79 | 262 | 8.0 | 19.0 | 0.00 | 0.00 | 0.00 | 15 | 1007.8 |
| 20260904224905 | 79 | 262 | 6.0 | 19.0 | 0.00 | 0.00 | 0.00 | 14 | 1007.7 |
| 20260904224805 | 79 | 260 | 14.0 | 19.0 | 0.00 | 0.00 | 0.00 | 13 | 1007.8 |
| 20260904224705 | 80 | 255 | 12.0 | 17.0 | 0.00 | 0.00 | 0.00 | 14 | 1007.8 |
| 20260904224605 | 80 | 247 | 11.0 | 18.0 | 0.00 | 0.00 | 0.00 | 14 | 1007.8 |
| 20260904224505 | 80 | 252 | 11.0 | 18.0 | 0.00 | 0.00 | 0.00 | 14 | 1007.7 |
| 20260904224305 | 80 | 262 | 8.0 | 18.0 | 0.00 | 0.00 | 0.00 | 13 | 1007.8 |
| 20260904224205 | 79 | 270 | 8.0 | 18.0 | 0.00 | 0.00 | 0.00 | 13 | 1007.8 |
| 20260904224105 | 79 | 262 | 9.0 | 18.0 | 0.00 | 0.00 | 0.00 | 13 | 1007.8 |
| 20260904224006 | 79 | 267 | 10.0 | 18.0 | 0.00 | 0.00 | 0.00 | 12 | 1007.7 |
| 20260904223905 | 79 | 264 | 11.0 | 18.0 | 0.00 | 0.00 | 0.00 | 12 | 1007.7 |
| 20260904223805 | 79 | 262 | 11.0 | 18.0 | 0.00 | 0.00 | 0.00 | 13 | 1007.8 |
| 20260904223705 | 79 | 262 | 11.0 | 18.0 | 0.00 | 0.00 | 0.00 | 14 | 1007.8 |
| 20260904223605 | 80 | 269 | 11.0 | 17.0 | 0.00 | 0.00 | 0.00 | 14 | 1007.8 |
| 20260904223505 | 80 | 265 | 11.0 | 17.0 | 0.00 | 0.00 | 0.00 | 14 | 1007.8 |
| 20260904223406 | 80 | 260 | 8.0 | 17.0 | 0.00 | 0.00 | 0.00 | 13 | 1007.8 |
| 20260904223305 | 79 | 260 | 6.0 | 17.0 | 0.00 | 0.00 | 0.00 | 13 | 1007.7 |
| 20260904223206 | 79 | 257 | 10.0 | 21.0 | 0.00 | 0.00 | 0.00 | 14 | 1007.8 |
| 20260904223106 | 79 | 266 | 9.0 | 23.0 | 0.00 | 0.00 | 0.00 | 14 | 1007.8 |
| 20260904223005 | 79 | 262 | 9.0 | 23.0 | 0.00 | 0.00 | 0.00 | 14 | 1007.7 |
| 20260904222906 | 78 | 263 | 7.0 | 23.0 | 0.00 | 0.00 | 0.00 | 15 | 1007.8 |
| 20260904222805 | 78 | 267 | 8.0 | 23.0 | 0.00 | 0.00 | 0.00 | 16 | 1007.8 |
| 20260904222706 | 78 | 268 | 12.0 | 23.0 | 0.00 | 0.00 | 0.00 | 16 | 1007.8 |
| 20260904222605 | 78 | 266 | 11.0 | 23.0 | 0.00 | 0.00 | 0.00 | 16 | 1007.7 |
| 20260904222505 | 78 | 263 | 13.0 | 23.0 | 0.00 | 0.00 | 0.00 | 16 | 1007.8 |
| 20260904222405 | 79 | 258 | 11.0 | 23.0 | 0.00 | 0.00 | 0.00 | 16 | 1007.8 |
| 20260904221805 | 80 | 242 | 11.0 | 24.0 | 0.00 | 0.00 | 0.00 | 15 | 1007.8 |
| 20260904221705 | 80 | 244 | 12.0 | 24.0 | 0.00 | 0.00 | 0.00 | 15 | 1007.8 |
| 20260904221605 | 80 | 253 | 9.0 | 24.0 | 0.00 | 0.00 | 0.00 | 12 | 1007.6 |
| 20260904221506 | 80 | 259 | 9.0 | 24.0 | 0.00 | 0.00 | 0.00 | 12 | 1007.6 |
| 20260904221405 | 80 | 266 | 7.0 | 24.0 | 0.00 | 0.00 | 0.00 | 12 | 1007.6 |
| 20260904221305 | 80 | 281 | 15.0 | 24.0 | 0.00 | 0.00 | 0.00 | 12 | 1007.8 |
| 20260904221205 | 80 | 276 | 12.0 | 21.0 | 0.00 | 0.00 | 0.00 | 13 | 1007.7 |
| 20260904221106 | 80 | 280 | 11.0 | 21.0 | 0.00 | 0.00 | 0.00 | 13 | 1007.7 |
| 20260904221005 | 79 | 286 | 7.0 | 21.0 | 0.00 | 0.00 | 0.00 | 14 | 1007.6 |
| 20260904220905 | 79 | 286 | 4.0 | 21.0 | 0.00 | 0.00 | 0.00 | 15 | 1007.7 |
| 20260904220806 | 80 | 284 | 10.0 | 21.0 | 0.00 | 0.00 | 0.00 | 15 | 1007.7 |
| 20260904220705 | 80 | 280 | 12.0 | 21.0 | 0.00 | 0.00 | 0.00 | 15 | 1007.7 |
| 20260904220605 | 80 | 270 | 11.0 | 18.0 | 0.00 | 0.00 | 0.00 | 14 | 1007.7 |
| 20260904220506 | 80 | 264 | 7.0 | 17.0 | 0.00 | 0.00 | 0.00 | 13 | 1007.8 |
| 20260904220405 | 80 | 256 | 13.0 | 17.0 | 0.00 | 0.00 | 0.00 | 13 | 1007.8 |
| 20260904220306 | 80 | 249 | 10.0 | 17.0 | 0.00 | 0.00 | 0.00 | 14 | 1007.7 |
| 20260904220105 | 81 | 247 | 12.0 | 17.0 | 0.00 | 0.00 | 0.00 | 13 | 1007.9 |
| 20260904220005 | 80 | 252 | 12.0 | 17.0 | 0.00 | 0.00 | 0.00 | 13 | 1007.8 |
| 20260904215905 | 80 | 258 | 8.0 | 15.0 | 0.00 | 0.00 | 0.00 | 12 | 1007.7 |
| 20260904215805 | 80 | 260 | 7.0 | 15.0 | 0.00 | 0.00 | 0.00 | 12 | 1007.7 |
| 20260904215705 | 80 | 260 | 9.0 | 15.0 | 0.00 | 0.00 | 0.00 | 12 | 1007.7 |
| 20260904215106 | 80 | 269 | 8.0 | 20.0 | 0.00 | 0.00 | 0.00 | 16 | 1007.6 |
| 20260904215005 | 80 | 268 | 9.0 | 20.0 | 0.00 | 0.00 | 0.00 | 16 | 1007.6 |
| 20260904214905 | 80 | 266 | 8.0 | 20.0 | 0.00 | 0.00 | 0.00 | 15 | 1007.6 |
| 20260904214805 | 80 | 266 | 9.0 | 20.0 | 0.00 | 0.00 | 0.00 | 15 | 1007.8 |
| 20260904214705 | 80 | 262 | 14.0 | 20.0 | 0.00 | 0.00 | 0.00 | 14 | 1007.8 |
| 20260904214605 | 80 | 260 | 9.0 | 20.0 | 0.00 | 0.00 | 0.00 | 15 | 1007.8 |
| 20260904214406 | 80 | 262 | 13.0 | 20.0 | 0.00 | 0.00 | 0.00 | 15 | 1007.7 |
| 20260904214305 | 80 | 264 | 14.0 | 22.0 | 0.00 | 0.00 | 0.00 | 14 | 1007.6 |
| 20260904214206 | 80 | 264 | 11.0 | 22.0 | 0.00 | 0.00 | 0.00 | 14 | 1007.7 |
| 20260904214105 | 80 | 265 | 15.0 | 22.0 | 0.00 | 0.00 | 0.00 | 14 | 1007.5 |
| 20260904213905 | 81 | 253 | 13.0 | 22.0 | 0.00 | 0.00 | 0.00 | 14 | 1007.7 |
| 20260904213805 | 81 | 249 | 10.0 | 22.0 | 0.00 | 0.00 | 0.00 | 13 | 1007.8 |
| 20260904213705 | 81 | 253 | 8.0 | 22.0 | 0.00 | 0.00 | 0.00 | 13 | 1007.8 |
| 20260904213605 | 81 | 253 | 8.0 | 22.0 | 0.00 | 0.00 | 0.00 | 12 | 1007.8 |
| 20260904213505 | 81 | 256 | 9.0 | 22.0 | 0.00 | 0.00 | 0.00 | 11 | 1007.7 |
| 20260904213405 | 81 | 253 | 15.0 | 22.0 | 0.00 | 0.00 | 0.00 | 12 | 1007.7 |
| 20260904213305 | 81 | 245 | 15.0 | 22.0 | 0.00 | 0.00 | 0.00 | 11 | 1007.6 |
| 20260904213206 | 81 | 236 | 6.0 | 17.0 | 0.00 | 0.00 | 0.00 | 14 | 1007.6 |
| 20260904213105 | 81 | 233 | 4.0 | 17.0 | 0.00 | 0.00 | 0.00 | 13 | 1007.7 |
| 20260904213005 | 81 | 237 | 4.0 | 17.0 | 0.00 | 0.00 | 0.00 | 13 | 1007.8 |
| 20260904212905 | 80 | 241 | 6.0 | 17.0 | 0.00 | 0.00 | 0.00 | 11 | 1007.8 |
| 20260904212806 | 80 | 238 | 4.0 | 17.0 | 0.00 | 0.00 | 0.00 | 10 | 1007.8 |
| 20260904212705 | 80 | 233 | 8.0 | 17.0 | 0.00 | 0.00 | 0.00 | 11 | 1007.9 |
| 20260904212605 | 80 | 233 | 6.0 | 17.0 | 0.00 | 0.00 | 0.00 | 12 | 1007.8 |
| 20260904212506 | 80 | 229 | 7.0 | 17.0 | 0.00 | 0.00 | 0.00 | 12 | 1007.7 |
| 20260904212405 | 80 | 235 | 7.0 | 23.0 | 0.00 | 0.00 | 0.00 | 11 | 1007.6 |
| 20260904212306 | 80 | 236 | 12.0 | 23.0 | 0.00 | 0.00 | 0.00 | 11 | 1007.7 |
| 20260904212205 | 80 | 242 | 9.0 | 23.0 | 0.00 | 0.00 | 0.00 | 12 | 1007.7 |
| 20260904212105 | 80 | 245 | 8.0 | 23.0 | 0.00 | 0.00 | 0.00 | 13 | 1007.7 |
| 20260904212006 | 80 | 242 | 3.0 | 23.0 | 0.00 | 0.00 | 0.00 | 13 | 1007.6 |
| 20260904211905 | 80 | 242 | 2.0 | 23.0 | 0.00 | 0.00 | 0.00 | 13 | 1007.6 |
| 20260904211805 | 80 | 238 | 1.0 | 23.0 | 0.00 | 0.00 | 0.00 | 13 | 1007.7 |
| 20260904211705 | 80 | 240 | 5.0 | 23.0 | 0.00 | 0.00 | 0.00 | 13 | 1007.8 |
| 20260904211606 | 80 | 245 | 13.0 | 23.0 | 0.00 | 0.00 | 0.00 | 13 | 1007.8 |
| 20260904211505 | 80 | 251 | 13.0 | 23.0 | 0.00 | 0.00 | 0.00 | 13 | 1007.8 |
| 20260904211405 | 80 | 257 | 14.0 | 23.0 | 0.00 | 0.00 | 0.00 | 12 | 1007.7 |
| 20260904211305 | 80 | 244 | 6.0 | 13.0 | 0.00 | 0.00 | 0.00 | 11 | 1007.6 |
| 20260904211206 | 80 | 227 | 5.0 | 15.0 | 0.00 | 0.00 | 0.00 | 10 | 1007.8 |
| 20260904210605 | 80 | 240 | 4.0 | 15.0 | 0.00 | 0.00 | 0.00 | 10 | 1007.8 |
| 20260904210505 | 80 | 235 | 3.0 | 15.0 | 0.00 | 0.00 | 0.00 | 11 | 1007.7 |
| 20260904210405 | 80 | 234 | 6.0 | 15.0 | 0.00 | 0.00 | 0.00 | 11 | 1007.7 |
| 20260904210305 | 80 | 240 | 4.0 | 15.0 | 0.00 | 0.00 | 0.00 | 12 | 1007.7 |
| 20260904210205 | 80 | 248 | 6.0 | 15.0 | 0.00 | 0.00 | 0.00 | 12 | 1007.7 |
| 20260904210105 | 79 | 258 | 9.0 | 12.0 | 0.00 | 0.00 | 0.00 | 11 | 1007.7 |
| 20260904210005 | 79 | 254 | 7.0 | 12.0 | 0.00 | 0.00 | 0.00 | 11 | 1007.8 |
| 20260904205905 | 79 | 248 | 4.0 | 12.0 | 0.00 | 0.00 | 0.00 | 11 | 1007.8 |
| 20260904205805 | 79 | 252 | 6.0 | 15.0 | 0.00 | 0.00 | 0.00 | 10 | 1007.8 |
| 20260904205705 | 80 | 245 | 8.0 | 16.0 | 0.00 | 0.00 | 0.00 | 10 | 1007.8 |
| 20260904205605 | 80 | 239 | 4.0 | 17.0 | 0.00 | 0.00 | 0.00 | 10 | 1007.9 |
| 20260904205505 | 80 | 227 | 4.0 | 17.0 | 0.00 | 0.00 | 0.00 | 10 | 1007.8 |
| 20260904205405 | 80 | 224 | 1.0 | 17.0 | 0.00 | 0.00 | 0.00 | 10 | 1007.8 |
| 20260904205306 | 80 | 221 | 2.0 | 17.0 | 0.00 | 0.00 | 0.00 | 10 | 1007.9 |
| 20260904205205 | 80 | 218 | 7.0 | 17.0 | 0.00 | 0.00 | 0.00 | 10 | 1007.8 |
| 20260904205105 | 80 | 212 | 6.0 | 17.0 | 0.00 | 0.00 | 0.00 | 10 | 1007.8 |
| 20260904205005 | 80 | 211 | 4.0 | 17.0 | 0.00 | 0.00 | 0.00 | 10 | 1007.8 |
| 20260904204905 | 80 | 206 | 5.0 | 17.0 | 0.00 | 0.00 | 0.00 | 10 | 1007.8 |
| 20260904204806 | 80 | 197 | 13.0 | 17.0 | 0.00 | 0.00 | 0.00 | 10 | 1007.7 |
| 20260904204705 | 80 | 191 | 11.0 | 17.0 | 0.00 | 0.00 | 0.00 | 10 | 1007.8 |
| 20260904204605 | 80 | 182 | 8.0 | 17.0 | 0.00 | 0.00 | 0.00 | 10 | 1007.7 |
| 20260904204505 | 80 | 189 | 8.0 | 17.0 | 0.00 | 0.00 | 0.00 | 10 | 1007.8 |
| 20260904204405 | 80 | 190 | 3.0 | 14.0 | 0.00 | 0.00 | 0.00 | 11 | 1007.8 |
| 20260904204305 | 80 | 200 | 2.0 | 17.0 | 0.00 | 0.00 | 0.00 | 12 | 1007.8 |
| 20260904204205 | 80 | 197 | 5.0 | 17.0 | 0.00 | 0.00 | 0.00 | 11 | 1007.8 |
| 20260904204105 | 80 | 198 | 5.0 | 17.0 | 0.00 | 0.00 | 0.00 | 11 | 1007.8 |
| 20260904204005 | 80 | 199 | 6.0 | 17.0 | 0.00 | 0.00 | 0.00 | 11 | 1007.9 |
| 20260904203905 | 80 | 198 | 7.0 | 17.0 | 0.00 | 0.00 | 0.00 | 11 | 1007.8 |
| 20260904203805 | 80 | 195 | 4.0 | 17.0 | 0.00 | 0.00 | 0.00 | 11 | 1007.8 |
| 20260904203705 | 80 | 204 | 3.0 | 17.0 | 0.00 | 0.00 | 0.00 | 11 | 1007.8 |
| 20260904203605 | 80 | 220 | 4.0 | 17.0 | 0.00 | 0.00 | 0.00 | 11 | 1007.9 |
| 20260904203505 | 80 | 218 | 7.0 | 17.0 | 0.00 | 0.00 | 0.00 | 10 | 1007.9 |
| 20260904203405 | 79 | 218 | 10.0 | 17.0 | 0.00 | 0.00 | 0.00 | 11 | 1007.9 |
| 20260904203305 | 79 | 218 | 9.0 | 17.0 | 0.00 | 0.00 | 0.00 | 12 | 1008.0 |
| 20260904203205 | 79 | 0 | 0.0 | 16.0 | 0.00 | 0.00 | 0.00 | 14 | 1008.0 |
| 20260904203105 | 79 | 241 | 2.0 | 16.0 | 0.00 | 0.00 | 0.00 | 16 | 1008.0 |
| 20260904203006 | 79 | 243 | 2.0 | 16.0 | 0.00 | 0.00 | 0.00 | 16 | 1007.9 |
| 20260904202905 | 79 | 250 | 4.0 | 17.0 | 0.00 | 0.00 | 0.00 | 15 | 1008.1 |
| 20260904202805 | 79 | 259 | 3.0 | 17.0 | 0.00 | 0.00 | 0.00 | 15 | 1007.9 |
| 20260904202705 | 79 | 260 | 4.0 | 17.0 | 0.00 | 0.00 | 0.00 | 15 | 1008.0 |
| 20260904202605 | 79 | 261 | 8.0 | 17.0 | 0.00 | 0.00 | 0.00 | 14 | 1008.0 |
| 20260904202505 | 79 | 261 | 9.0 | 17.0 | 0.00 | 0.00 | 0.00 | 12 | 1008.1 |
| 20260904202405 | 79 | 265 | 11.0 | 17.0 | 0.00 | 0.00 | 0.00 | 15 | 1008.0 |
| 20260904202306 | 79 | 269 | 11.0 | 17.0 | 0.00 | 0.00 | 0.00 | 15 | 1008.1 |
| 20260904202206 | 79 | 259 | 9.0 | 17.0 | 0.00 | 0.00 | 0.00 | 14 | 1008.1 |
| 20260904202105 | 79 | 252 | 10.0 | 17.0 | 0.00 | 0.00 | 0.00 | 14 | 1008.0 |
| 20260904202006 | 80 | 255 | 14.0 | 17.0 | 0.00 | 0.00 | 0.00 | 14 | 1008.2 |
| 20260904201905 | 80 | 249 | 11.0 | 17.0 | 0.00 | 0.00 | 0.00 | 14 | 1008.1 |
| 20260904201805 | 80 | 228 | 4.0 | 11.0 | 0.00 | 0.00 | 0.00 | 11 | 1007.9 |
| 20260904201706 | 80 | 225 | 2.0 | 11.0 | 0.00 | 0.00 | 0.00 | 12 | 1008.0 |
| 20260904201606 | 80 | 225 | 1.0 | 15.0 | 0.00 | 0.00 | 0.00 | 11 | 1008.1 |
| 20260904201505 | 80 | 232 | 1.0 | 15.0 | 0.00 | 0.00 | 0.00 | 11 | 1008.1 |
| 20260904201405 | 80 | 233 | 1.0 | 15.0 | 0.00 | 0.00 | 0.00 | 11 | 1008.1 |
| 20260904201305 | 80 | 234 | 2.0 | 15.0 | 0.00 | 0.00 | 0.00 | 11 | 1008.1 |
| 20260904201205 | 80 | 241 | 2.0 | 15.0 | 0.00 | 0.00 | 0.00 | 11 | 1008.1 |
| 20260904201105 | 80 | 243 | 4.0 | 15.0 | 0.00 | 0.00 | 0.00 | 11 | 1008.1 |
| 20260904201006 | 80 | 241 | 4.0 | 15.0 | 0.00 | 0.00 | 0.00 | 11 | 1008.1 |
| 20260904200905 | 80 | 238 | 7.0 | 17.0 | 0.00 | 0.00 | 0.00 | 11 | 1008.1 |
| 20260904200805 | 80 | 241 | 8.0 | 17.0 | 0.00 | 0.00 | 0.00 | 11 | 1008.1 |
| 20260904200706 | 80 | 244 | 11.0 | 17.0 | 0.00 | 0.00 | 0.00 | 11 | 1008.1 |
| 20260904200605 | 79 | 246 | 7.0 | 17.0 | 0.00 | 0.00 | 0.00 | 11 | 1007.9 |
| 20260904200506 | 79 | 240 | 7.0 | 17.0 | 0.00 | 0.00 | 0.00 | 11 | 1008.0 |
| 20260904200405 | 79 | 236 | 5.0 | 17.0 | 0.00 | 0.00 | 0.00 | 12 | 1008.0 |
| 20260904200305 | 79 | 233 | 3.0 | 17.0 | 0.00 | 0.00 | 0.00 | 12 | 1007.9 |
| 20260904200205 | 78 | 233 | 7.0 | 17.0 | 0.00 | 0.00 | 0.00 | 12 | 1008.1 |
| 20260904200105 | 78 | 226 | 7.0 | 17.0 | 0.00 | 0.00 | 0.00 | 12 | 1008.1 |
| 20260904200005 | 78 | 231 | 8.0 | 17.0 | 0.00 | 0.00 | 0.00 | 12 | 1008.0 |
| 20260904195905 | 78 | 233 | 7.0 | 17.0 | 0.00 | 0.00 | 0.00 | 12 | 1008.1 |
| 20260904195805 | 79 | 228 | 2.0 | 17.0 | 0.00 | 0.00 | 0.00 | 12 | 1008.1 |
| 20260904195706 | 79 | 221 | 2.0 | 17.0 | 0.00 | 0.00 | 0.00 | 12 | 1008.1 |
| 20260904195605 | 79 | 219 | 6.0 | 17.0 | 0.00 | 0.00 | 0.00 | 11 | 1008.2 |
| 20260904195406 | 80 | 215 | 11.0 | 17.0 | 0.00 | 0.00 | 0.00 | 11 | 1008.2 |
| 20260904195308 | 80 | 211 | 8.0 | 14.0 | 0.00 | 0.00 | 0.00 | 11 | 1008.1 |
| 20260904195206 | 80 | 174 | 8.0 | 14.0 | 0.00 | 0.00 | 0.00 | 11 | 1008.0 |
| 20260904195105 | 80 | 158 | 8.0 | 11.0 | 0.00 | 0.00 | 0.00 | 11 | 1008.0 |
| 20260904195005 | 80 | 124 | 7.0 | 11.0 | 0.00 | 0.00 | 0.00 | 11 | 1008.1 |
| 20260904194906 | 80 | 106 | 6.0 | 11.0 | 0.00 | 0.00 | 0.00 | 12 | 1008.2 |
| 20260904194806 | 80 | 109 | 2.0 | 8.0 | 0.00 | 0.00 | 0.00 | 13 | 1008.2 |
| 20260904194605 | 79 | 117 | 2.0 | 9.0 | 0.00 | 0.00 | 0.00 | 13 | 1008.1 |
| 20260904194505 | 79 | 139 | 2.0 | 14.0 | 0.00 | 0.00 | 0.00 | 13 | 1008.2 |
| 20260904194405 | 79 | 155 | 2.0 | 14.0 | 0.00 | 0.00 | 0.00 | 13 | 1008.2 |
| 20260904194305 | 79 | 164 | 2.0 | 14.0 | 0.00 | 0.00 | 0.00 | 13 | 1008.3 |
| 20260904194205 | 79 | 169 | 1.0 | 14.0 | 0.00 | 0.00 | 0.00 | 13 | 1008.2 |
| 20260904194106 | 79 | 173 | 2.0 | 14.0 | 0.00 | 0.00 | 0.00 | 13 | 1008.2 |
| 20260904194005 | 79 | 183 | 3.0 | 14.0 | 0.00 | 0.00 | 0.00 | 14 | 1008.3 |
| 20260904193906 | 78 | 188 | 4.0 | 14.0 | 0.00 | 0.00 | 0.00 | 13 | 1008.3 |
| 20260904193805 | 78 | 196 | 3.0 | 14.0 | 0.00 | 0.00 | 0.00 | 13 | 1008.2 |
| 20260904193705 | 78 | 203 | 2.0 | 14.0 | 0.00 | 0.00 | 0.00 | 13 | 1008.3 |
| 20260904193505 | 78 | 214 | 7.0 | 14.0 | 0.00 | 0.00 | 0.00 | 12 | 1008.3 |
| 20260904193405 | 78 | 228 | 7.0 | 14.0 | 0.00 | 0.00 | 0.00 | 12 | 1008.4 |
| 20260904193306 | 78 | 245 | 7.0 | 14.0 | 0.00 | 0.00 | 0.00 | 12 | 1008.3 |
| 20260904193205 | 78 | 253 | 7.0 | 14.0 | 0.00 | 0.00 | 0.00 | 12 | 1008.3 |
| 20260904193105 | 78 | 259 | 3.0 | 10.0 | 0.00 | 0.00 | 0.00 | 13 | 1008.4 |
| 20260904193006 | 78 | 254 | 3.0 | 10.0 | 0.00 | 0.00 | 0.00 | 13 | 1008.4 |
| 20260904192905 | 78 | 248 | 4.0 | 12.0 | 0.00 | 0.00 | 0.00 | 12 | 1008.3 |
| 20260904192805 | 78 | 239 | 2.0 | 12.0 | 0.00 | 0.00 | 0.00 | 13 | 1008.3 |
| 20260904192705 | 78 | 236 | 2.0 | 12.0 | 0.00 | 0.00 | 0.00 | 12 | 1008.3 |
| 20260904192605 | 78 | 233 | 4.0 | 12.0 | 0.00 | 0.00 | 0.00 | 13 | 1008.4 |
| 20260904192505 | 78 | 231 | 2.0 | 12.0 | 0.00 | 0.00 | 0.00 | 13 | 1008.5 |
| 20260904192405 | 78 | 227 | 8.0 | 12.0 | 0.00 | 0.00 | 0.00 | 13 | 1008.5 |
| 20260904192306 | 78 | 220 | 5.0 | 12.0 | 0.00 | 0.00 | 0.00 | 14 | 1008.3 |
| 20260904192206 | 78 | 219 | 5.0 | 12.0 | 0.00 | 0.00 | 0.00 | 13 | 1008.4 |
| 20260904192105 | 78 | 212 | 5.0 | 12.0 | 0.00 | 0.00 | 0.00 | 13 | 1008.4 |
| 20260904192005 | 78 | 222 | 8.0 | 12.0 | 0.00 | 0.00 | 0.00 | 14 | 1008.5 |
| 20260904191905 | 78 | 237 | 8.0 | 12.0 | 0.00 | 0.00 | 0.00 | 14 | 1008.4 |
| 20260904191805 | 78 | 256 | 4.0 | 10.0 | 0.00 | 0.00 | 0.00 | 14 | 1008.5 |
| 20260904191705 | 77 | 282 | 1.0 | 10.0 | 0.00 | 0.00 | 0.00 | 14 | 1008.6 |
| 20260904191605 | 77 | 261 | 2.0 | 11.0 | 0.00 | 0.00 | 0.00 | 15 | 1008.5 |
| 20260904191505 | 77 | 255 | 2.0 | 11.0 | 0.00 | 0.00 | 0.00 | 15 | 1008.5 |
| 20260904191405 | 77 | 249 | 1.0 | 11.0 | 0.00 | 0.00 | 0.00 | 15 | 1008.5 |
| 20260904191305 | 77 | 261 | 1.0 | 11.0 | 0.00 | 0.00 | 0.00 | 14 | 1008.5 |
| 20260904191205 | 77 | 257 | 2.0 | 11.0 | 0.00 | 0.00 | 0.00 | 14 | 1008.6 |
| 20260904191105 | 77 | 255 | 3.0 | 11.0 | 0.00 | 0.00 | 0.00 | 14 | 1008.6 |
| 20260904191005 | 77 | 252 | 4.0 | 11.0 | 0.00 | 0.00 | 0.00 | 14 | 1008.5 |
| 20260904190906 | 77 | 244 | 6.0 | 11.0 | 0.00 | 0.00 | 0.00 | 14 | 1008.6 |
| 20260904190805 | 77 | 251 | 7.0 | 11.0 | 0.00 | 0.00 | 0.00 | 14 | 1008.6 |
| 20260904190705 | 77 | 248 | 5.0 | 11.0 | 0.00 | 0.00 | 0.00 | 15 | 1008.6 |
| 20260904190605 | 77 | 265 | 4.0 | 11.0 | 0.00 | 0.00 | 0.00 | 14 | 1008.4 |
| 20260904190506 | 77 | 261 | 4.0 | 11.0 | 0.00 | 0.00 | 0.00 | 14 | 1008.5 |
| 20260904190405 | 77 | 262 | 7.0 | 11.0 | 0.00 | 0.00 | 0.00 | 15 | 1008.7 |
| 20260904190305 | 77 | 252 | 8.0 | 11.0 | 0.00 | 0.00 | 0.00 | 15 | 1008.6 |
| 20260904190105 | 77 | 262 | 2.0 | 11.0 | 0.00 | 0.00 | 0.00 | 16 | 1008.6 |
| 20260904190005 | 76 | 266 | 2.0 | 11.0 | 0.00 | 0.00 | 0.00 | 16 | 1008.6 |
| 20260904185905 | 76 | 267 | 4.0 | 11.0 | 0.00 | 0.00 | 0.00 | 15 | 1008.6 |
| 20260904185805 | 76 | 263 | 4.0 | 11.0 | 0.00 | 0.00 | 0.00 | 15 | 1008.5 |
| 20260904185705 | 76 | 260 | 4.0 | 11.0 | 0.00 | 0.00 | 0.00 | 15 | 1008.6 |
| 20260904185605 | 76 | 253 | 4.0 | 11.0 | 0.00 | 0.00 | 0.00 | 16 | 1008.6 |
| 20260904185505 | 76 | 263 | 4.0 | 11.0 | 0.00 | 0.00 | 0.00 | 16 | 1008.6 |
| 20260904185405 | 76 | 262 | 6.0 | 11.0 | 0.00 | 0.00 | 0.00 | 16 | 1008.6 |
| 20260904185306 | 76 | 265 | 5.0 | 14.0 | 0.00 | 0.00 | 0.00 | 16 | 1008.6 |
| 20260904185205 | 76 | 262 | 4.0 | 14.0 | 0.00 | 0.00 | 0.00 | 15 | 1008.6 |
| 20260904185105 | 77 | 260 | 5.0 | 14.0 | 0.00 | 0.00 | 0.00 | 15 | 1008.6 |
| 20260904185005 | 77 | 254 | 7.0 | 14.0 | 0.00 | 0.00 | 0.00 | 15 | 1008.8 |
| 20260904184906 | 77 | 254 | 5.0 | 14.0 | 0.00 | 0.00 | 0.00 | 15 | 1008.7 |
| 20260904184805 | 77 | 252 | 4.0 | 14.0 | 0.00 | 0.00 | 0.00 | 15 | 1008.7 |
| 20260904184705 | 76 | 265 | 5.0 | 14.0 | 0.00 | 0.00 | 0.00 | 15 | 1008.7 |
| 20260904184606 | 76 | 280 | 6.0 | 14.0 | 0.00 | 0.00 | 0.00 | 15 | 1008.7 |
| 20260904184505 | 76 | 271 | 6.0 | 14.0 | 0.00 | 0.00 | 0.00 | 15 | 1008.8 |
| 20260904184405 | 76 | 275 | 8.0 | 14.0 | 0.00 | 0.00 | 0.00 | 16 | 1008.8 |
| 20260904184305 | 76 | 273 | 7.0 | 12.0 | 0.00 | 0.00 | 0.00 | 16 | 1008.7 |
| 20260904184205 | 76 | 270 | 4.0 | 12.0 | 0.00 | 0.00 | 0.00 | 16 | 1008.7 |
| 20260904184105 | 76 | 274 | 5.0 | 12.0 | 0.00 | 0.00 | 0.00 | 16 | 1008.8 |
| 20260904184006 | 76 | 0 | 0.0 | 12.0 | 0.00 | 0.00 | 0.00 | 16 | 1008.7 |
| 20260904183905 | 76 | 259 | 2.0 | 14.0 | 0.00 | 0.00 | 0.00 | 15 | 1008.8 |
| 20260904183805 | 76 | 266 | 6.0 | 14.0 | 0.00 | 0.00 | 0.00 | 15 | 1008.8 |
| 20260904183705 | 76 | 263 | 7.0 | 14.0 | 0.00 | 0.00 | 0.00 | 16 | 1008.8 |
| 20260904183605 | 75 | 250 | 6.0 | 14.0 | 0.00 | 0.00 | 0.00 | 17 | 1008.9 |
| 20260904183505 | 75 | 247 | 3.0 | 14.0 | 0.00 | 0.00 | 0.00 | 17 | 1008.8 |
| 20260904183405 | 75 | 250 | 4.0 | 14.0 | 0.00 | 0.00 | 0.00 | 17 | 1008.8 |
| 20260904183305 | 75 | 246 | 6.0 | 14.0 | 0.00 | 0.00 | 0.00 | 18 | 1008.8 |
| 20260904183206 | 74 | 246 | 4.0 | 14.0 | 0.00 | 0.00 | 0.00 | 17 | 1008.8 |
| 20260904183105 | 74 | 244 | 6.0 | 14.0 | 0.00 | 0.00 | 0.00 | 17 | 1008.8 |
| 20260904183005 | 74 | 248 | 6.0 | 14.0 | 0.00 | 0.00 | 0.00 | 17 | 1008.8 |
| 20260904182905 | 74 | 256 | 9.0 | 14.0 | 0.00 | 0.00 | 0.00 | 17 | 1008.8 |
| 20260904182805 | 75 | 254 | 8.0 | 13.0 | 0.00 | 0.00 | 0.00 | 17 | 1008.8 |
| 20260904182705 | 75 | 252 | 9.0 | 13.0 | 0.00 | 0.00 | 0.00 | 17 | 1008.8 |
| 20260904182605 | 75 | 255 | 4.0 | 11.0 | 0.00 | 0.00 | 0.00 | 17 | 1008.8 |
| 20260904182505 | 75 | 253 | 8.0 | 11.0 | 0.00 | 0.00 | 0.00 | 17 | 1008.8 |
| 20260904182405 | 75 | 250 | 7.0 | 11.0 | 0.00 | 0.00 | 0.00 | 17 | 1008.8 |
| 20260904182306 | 75 | 254 | 7.0 | 11.0 | 0.00 | 0.00 | 0.00 | 17 | 1008.8 |
| 20260904182205 | 75 | 255 | 4.0 | 11.0 | 0.00 | 0.00 | 0.00 | 17 | 1008.7 |
| 20260904182105 | 75 | 257 | 7.0 | 11.0 | 0.00 | 0.00 | 0.00 | 17 | 1008.7 |
| 20260904182005 | 75 | 255 | 4.0 | 11.0 | 0.00 | 0.00 | 0.00 | 17 | 1008.8 |
| 20260904181905 | 75 | 248 | 4.0 | 12.0 | 0.00 | 0.00 | 0.00 | 17 | 1008.9 |
| 20260904181805 | 75 | 244 | 8.0 | 12.0 | 0.00 | 0.00 | 0.00 | 17 | 1008.8 |
| 20260904181705 | 75 | 243 | 6.0 | 12.0 | 0.00 | 0.00 | 0.00 | 17 | 1008.9 |
| 20260904181605 | 75 | 250 | 9.0 | 14.0 | 0.00 | 0.00 | 0.00 | 17 | 1008.8 |
| 20260904181505 | 75 | 251 | 9.0 | 14.0 | 0.00 | 0.00 | 0.00 | 17 | 1008.9 |
| 20260904181405 | 75 | 256 | 5.0 | 14.0 | 0.00 | 0.00 | 0.00 | 18 | 1008.9 |
| 20260904181305 | 75 | 249 | 5.0 | 14.0 | 0.00 | 0.00 | 0.00 | 18 | 1008.9 |
| 20260904181205 | 75 | 256 | 8.0 | 15.0 | 0.00 | 0.00 | 0.00 | 17 | 1008.8 |
| 20260904181105 | 75 | 261 | 6.0 | 17.0 | 0.00 | 0.00 | 0.00 | 17 | 1008.9 |
| 20260904181005 | 75 | 266 | 7.0 | 17.0 | 0.00 | 0.00 | 0.00 | 18 | 1009.0 |
| 20260904180905 | 75 | 268 | 9.0 | 17.0 | 0.00 | 0.00 | 0.00 | 17 | 1009.0 |
| 20260904180806 | 75 | 270 | 6.0 | 23.0 | 0.00 | 0.00 | 0.00 | 18 | 1009.0 |
| 20260904180705 | 75 | 269 | 8.0 | 23.0 | 0.00 | 0.00 | 0.00 | 18 | 1009.0 |
| 20260904180605 | 75 | 264 | 11.0 | 23.0 | 0.00 | 0.00 | 0.00 | 18 | 1009.0 |
| 20260904180506 | 75 | 264 | 8.0 | 23.0 | 0.00 | 0.00 | 0.00 | 18 | 1009.0 |
| 20260904180405 | 75 | 265 | 8.0 | 23.0 | 0.00 | 0.00 | 0.00 | 18 | 1009.0 |
| 20260904180305 | 75 | 269 | 11.0 | 23.0 | 0.00 | 0.00 | 0.00 | 18 | 1009.0 |
| 20260904180206 | 75 | 267 | 11.0 | 23.0 | 0.00 | 0.00 | 0.00 | 19 | 1009.1 |
| 20260904180105 | 74 | 263 | 10.0 | 23.0 | 0.00 | 0.00 | 0.00 | 19 | 1009.0 |
| 20260904180005 | 74 | 260 | 7.0 | 23.0 | 0.00 | 0.00 | 0.00 | 19 | 1009.1 |
| 20260904175906 | 74 | 262 | 9.0 | 23.0 | 0.00 | 0.00 | 0.00 | 20 | 1009.0 |
| 20260904175805 | 74 | 258 | 5.0 | 21.0 | 0.00 | 0.00 | 0.00 | 20 | 1008.8 |
| 20260904175605 | 74 | 254 | 8.0 | 12.0 | 0.00 | 0.00 | 0.00 | 20 | 1009.2 |
| 20260904175505 | 74 | 255 | 6.0 | 12.0 | 0.00 | 0.00 | 0.00 | 20 | 1009.1 |
| 20260904175405 | 74 | 226 | 5.0 | 12.0 | 0.00 | 0.00 | 0.00 | 20 | 1009.1 |
| 20260904175306 | 74 | 215 | 4.0 | 12.0 | 0.00 | 0.00 | 0.00 | 20 | 1009.1 |
| 20260904175205 | 74 | 213 | 4.0 | 12.0 | 0.00 | 0.00 | 0.00 | 19 | 1009.2 |
| 20260904175105 | 74 | 211 | 6.0 | 12.0 | 0.00 | 0.00 | 0.00 | 20 | 1009.2 |
| 20260904175005 | 74 | 197 | 6.0 | 12.0 | 0.00 | 0.00 | 0.00 | 20 | 1009.1 |
| 20260904174905 | 74 | 202 | 3.0 | 12.0 | 0.00 | 0.00 | 0.00 | 20 | 1009.2 |
| 20260904174805 | 74 | 222 | 4.0 | 12.0 | 0.00 | 0.00 | 0.00 | 20 | 1009.2 |
| 20260904174705 | 73 | 233 | 4.0 | 12.0 | 0.00 | 0.00 | 0.00 | 20 | 1009.2 |
| 20260904174605 | 74 | 238 | 2.0 | 12.0 | 0.00 | 0.00 | 0.00 | 20 | 1009.2 |
| 20260904174505 | 74 | 240 | 2.0 | 12.0 | 0.00 | 0.00 | 0.00 | 20 | 1009.2 |
| 20260904174405 | 74 | 243 | 8.0 | 12.0 | 0.00 | 0.00 | 0.00 | 20 | 1009.2 |
| 20260904174304 | 74 | 243 | 7.0 | 12.0 | 0.00 | 0.00 | 0.00 | 20 | 1009.3 |
| 20260904174205 | 74 | 248 | 4.0 | 12.0 | 0.00 | 0.00 | 0.00 | 20 | 1009.2 |
| 20260904174105 | 74 | 251 | 8.0 | 12.0 | 0.00 | 0.00 | 0.00 | 21 | 1009.3 |
| 20260904174005 | 73 | 257 | 4.0 | 10.0 | 0.00 | 0.00 | 0.00 | 21 | 1009.2 |
| 20260904173905 | 73 | 258 | 4.0 | 10.0 | 0.00 | 0.00 | 0.00 | 21 | 1009.3 |
| 20260904173805 | 73 | 252 | 2.0 | 10.0 | 0.00 | 0.00 | 0.00 | 21 | 1009.2 |
| 20260904173705 | 73 | 244 | 3.0 | 10.0 | 0.00 | 0.00 | 0.00 | 21 | 1009.2 |
| 20260904173605 | 73 | 245 | 5.0 | 11.0 | 0.00 | 0.00 | 0.00 | 22 | 1009.1 |
| 20260904173505 | 73 | 246 | 5.0 | 11.0 | 0.00 | 0.00 | 0.00 | 22 | 1009.2 |
| 20260904173305 | 72 | 248 | 4.0 | 11.0 | 0.00 | 0.00 | 0.00 | 21 | 1009.2 |
| 20260904173205 | 72 | 246 | 3.0 | 11.0 | 0.00 | 0.00 | 0.00 | 21 | 1009.2 |
| 20260904173106 | 73 | 245 | 4.0 | 11.0 | 0.00 | 0.00 | 0.00 | 21 | 1009.1 |
| 20260904173005 | 73 | 239 | 4.0 | 11.0 | 0.00 | 0.00 | 0.00 | 21 | 1009.2 |
| 20260904172905 | 72 | 234 | 3.0 | 11.0 | 0.00 | 0.00 | 0.00 | 21 | 1009.2 |
| 20260904172805 | 72 | 238 | 5.0 | 12.0 | 0.00 | 0.00 | 0.00 | 21 | 1009.2 |
| 20260904172705 | 72 | 244 | 6.0 | 12.0 | 0.00 | 0.00 | 0.00 | 22 | 1009.2 |
| 20260904172606 | 72 | 252 | 6.0 | 12.0 | 0.00 | 0.00 | 0.00 | 22 | 1009.2 |
| 20260904172505 | 72 | 260 | 7.0 | 12.0 | 0.00 | 0.00 | 0.00 | 22 | 1009.2 |
| 20260904172405 | 72 | 269 | 3.0 | 12.0 | 0.00 | 0.00 | 0.00 | 22 | 1009.2 |
| 20260904172306 | 72 | 267 | 3.0 | 14.0 | 0.00 | 0.00 | 0.00 | 22 | 1009.3 |
| 20260904171706 | 72 | 264 | 7.0 | 15.0 | 0.00 | 0.00 | 0.00 | 22 | 1009.1 |
| 20260904171608 | 72 | 260 | 7.0 | 15.0 | 0.00 | 0.00 | 0.00 | 22 | 1009.2 |
| 20260904171504 | 72 | 250 | 7.0 | 15.0 | 0.00 | 0.00 | 0.00 | 22 | 1009.1 |
| 20260904171405 | 72 | 244 | 9.0 | 15.0 | 0.00 | 0.00 | 0.00 | 22 | 1009.2 |
| 20260904171305 | 72 | 242 | 11.0 | 15.0 | 0.00 | 0.00 | 0.00 | 22 | 1009.1 |
| 20260904171205 | 72 | 238 | 9.0 | 15.0 | 0.00 | 0.00 | 0.00 | 22 | 1009.1 |
| 20260904171105 | 72 | 232 | 9.0 | 15.0 | 0.00 | 0.00 | 0.00 | 22 | 1009.1 |
| 20260904171005 | 72 | 234 | 10.0 | 15.0 | 0.00 | 0.00 | 0.00 | 22 | 1009.2 |
| 20260904170905 | 72 | 237 | 8.0 | 15.0 | 0.00 | 0.00 | 0.00 | 23 | 1009.1 |
| 20260904170805 | 72 | 233 | 8.0 | 15.0 | 0.00 | 0.00 | 0.00 | 23 | 1009.1 |
| 20260904170705 | 72 | 235 | 4.0 | 15.0 | 0.00 | 0.00 | 0.00 | 23 | 1009.1 |
| 20260904170605 | 72 | 235 | 7.0 | 15.0 | 0.00 | 0.00 | 0.00 | 23 | 1009.1 |
| 20260904170505 | 72 | 236 | 11.0 | 15.0 | 0.00 | 0.00 | 0.00 | 23 | 1009.1 |
| 20260904170405 | 72 | 240 | 9.0 | 13.0 | 0.00 | 0.00 | 0.00 | 23 | 1009.0 |
| 20260904170305 | 72 | 244 | 10.0 | 13.0 | 0.00 | 0.00 | 0.00 | 23 | 1009.1 |
| 20260904170205 | 71 | 247 | 6.0 | 11.0 | 0.00 | 0.00 | 0.00 | 24 | 1009.2 |
| 20260904170105 | 71 | 244 | 3.0 | 11.0 | 0.00 | 0.00 | 0.00 | 23 | 1009.0 |
| 20260904170005 | 71 | 243 | 4.0 | 11.0 | 0.00 | 0.00 | 0.00 | 23 | 1009.1 |
| 20260904165905 | 71 | 240 | 3.0 | 11.0 | 0.00 | 0.00 | 0.00 | 23 | 1009.2 |
| 20260904165805 | 71 | 236 | 2.0 | 11.0 | 0.00 | 0.00 | 0.00 | 23 | 1009.1 |
| 20260904165705 | 71 | 235 | 4.0 | 11.0 | 0.00 | 0.00 | 0.00 | 23 | 1009.1 |
| 20260904165605 | 71 | 231 | 8.0 | 11.0 | 0.00 | 0.00 | 0.00 | 23 | 1009.1 |
| 20260904165505 | 71 | 231 | 6.0 | 11.0 | 0.00 | 0.00 | 0.00 | 23 | 1009.1 |
| 20260904165405 | 71 | 227 | 7.0 | 11.0 | 0.00 | 0.00 | 0.00 | 24 | 1009.1 |
| 20260904165306 | 71 | 223 | 5.0 | 11.0 | 0.00 | 0.00 | 0.00 | 24 | 1009.2 |
| 20260904165205 | 71 | 226 | 5.0 | 11.0 | 0.00 | 0.00 | 0.00 | 24 | 1009.0 |
| 20260904165105 | 71 | 229 | 4.0 | 11.0 | 0.00 | 0.00 | 0.00 | 24 | 1009.2 |
| 20260904165006 | 71 | 233 | 6.0 | 11.0 | 0.00 | 0.00 | 0.00 | 24 | 1009.1 |
| 20260904164905 | 71 | 233 | 6.0 | 11.0 | 0.00 | 0.00 | 0.00 | 24 | 1009.1 |
| 20260904164405 | 71 | 234 | 5.0 | 14.0 | 0.00 | 0.00 | 0.00 | 24 | 1009.2 |
| 20260904164305 | 71 | 235 | 3.0 | 14.0 | 0.00 | 0.00 | 0.00 | 24 | 1009.2 |
| 20260904164205 | 71 | 231 | 4.0 | 14.0 | 0.00 | 0.00 | 0.00 | 24 | 1009.2 |
| 20260904164105 | 71 | 227 | 6.0 | 14.0 | 0.00 | 0.00 | 0.00 | 24 | 1009.0 |
| 20260904164005 | 71 | 233 | 7.0 | 14.0 | 0.00 | 0.00 | 0.00 | 24 | 1009.0 |
| 20260904163904 | 71 | 239 | 6.0 | 14.0 | 0.00 | 0.00 | 0.00 | 24 | 1009.0 |
| 20260904163805 | 71 | 249 | 8.0 | 14.0 | 0.00 | 0.00 | 0.00 | 24 | 1009.1 |
| 20260904163705 | 71 | 251 | 8.0 | 14.0 | 0.00 | 0.00 | 0.00 | 24 | 1009.0 |
| 20260904163606 | 71 | 262 | 6.0 | 14.0 | 0.00 | 0.00 | 0.00 | 25 | 1009.0 |
| 20260904163505 | 71 | 262 | 6.0 | 14.0 | 0.00 | 0.00 | 0.00 | 25 | 1009.0 |
| 20260904163405 | 71 | 261 | 3.0 | 14.0 | 0.00 | 0.00 | 0.00 | 24 | 1009.0 |
| 20260904163305 | 71 | 0 | 0.0 | 14.0 | 0.00 | 0.00 | 0.00 | 25 | 1009.0 |
| 20260904163205 | 70 | 255 | 4.0 | 14.0 | 0.00 | 0.00 | 0.00 | 24 | 1009.1 |
| 20260904163106 | 71 | 256 | 9.0 | 14.0 | 0.00 | 0.00 | 0.00 | 25 | 1009.1 |
| 20260904163005 | 71 | 252 | 9.0 | 14.0 | 0.00 | 0.00 | 0.00 | 25 | 1009.0 |
| 20260904162905 | 71 | 251 | 9.0 | 13.0 | 0.00 | 0.00 | 0.00 | 25 | 1009.0 |
| 20260904162806 | 70 | 244 | 6.0 | 13.0 | 0.00 | 0.00 | 0.00 | 26 | 1009.0 |
| 20260904162705 | 70 | 251 | 6.0 | 13.0 | 0.00 | 0.00 | 0.00 | 26 | 1009.0 |
| 20260904162605 | 70 | 248 | 6.0 | 13.0 | 0.00 | 0.00 | 0.00 | 25 | 1009.0 |
| 20260904162505 | 70 | 251 | 8.0 | 13.0 | 0.00 | 0.00 | 0.00 | 25 | 1009.0 |
| 20260904162405 | 70 | 257 | 9.0 | 13.0 | 0.00 | 0.00 | 0.00 | 26 | 1009.0 |
| 20260904162306 | 70 | 259 | 4.0 | 13.0 | 0.00 | 0.00 | 0.00 | 26 | 1009.1 |
| 20260904162205 | 70 | 261 | 6.0 | 13.0 | 0.00 | 0.00 | 0.00 | 26 | 1009.0 |
| 20260904162104 | 70 | 263 | 7.0 | 13.0 | 0.00 | 0.00 | 0.00 | 26 | 1009.0 |
| 20260904162005 | 70 | 260 | 2.0 | 13.0 | 0.00 | 0.00 | 0.00 | 27 | 1009.1 |
| 20260904161905 | 70 | 262 | 4.0 | 13.0 | 0.00 | 0.00 | 0.00 | 27 | 1009.1 |
| 20260904161805 | 69 | 261 | 5.0 | 13.0 | 0.00 | 0.00 | 0.00 | 27 | 1009.1 |
| 20260904161705 | 69 | 258 | 8.0 | 13.0 | 0.00 | 0.00 | 0.00 | 27 | 1009.0 |
| 20260904161605 | 69 | 253 | 5.0 | 11.0 | 0.00 | 0.00 | 0.00 | 27 | 1009.0 |
| 20260904161505 | 69 | 247 | 5.0 | 14.0 | 0.00 | 0.00 | 0.00 | 27 | 1009.2 |
| 20260904161405 | 69 | 239 | 4.0 | 14.0 | 0.00 | 0.00 | 0.00 | 27 | 1009.1 |
| 20260904161305 | 69 | 236 | 5.0 | 14.0 | 0.00 | 0.00 | 0.00 | 27 | 1009.2 |
| 20260904161205 | 69 | 232 | 8.0 | 14.0 | 0.00 | 0.00 | 0.00 | 27 | 1009.1 |
| 20260904161105 | 69 | 232 | 5.0 | 14.0 | 0.00 | 0.00 | 0.00 | 27 | 1009.1 |
| 20260904160905 | 69 | 234 | 8.0 | 14.0 | 0.00 | 0.00 | 0.00 | 27 | 1009.1 |
| 20260904160805 | 69 | 232 | 6.0 | 14.0 | 0.00 | 0.00 | 0.00 | 28 | 1009.1 |
| 20260904160706 | 69 | 231 | 1.0 | 14.0 | 0.00 | 0.00 | 0.00 | 28 | 1009.1 |
| 20260904160605 | 69 | 236 | 3.0 | 14.0 | 0.00 | 0.00 | 0.00 | 28 | 1009.1 |
| 20260904160505 | 68 | 237 | 10.0 | 14.0 | 0.00 | 0.00 | 0.00 | 28 | 1009.1 |
| 20260904155905 | 68 | 240 | 7.0 | 15.0 | 0.00 | 0.00 | 0.00 | 29 | 1009.2 |
| 20260904155805 | 68 | 253 | 5.0 | 15.0 | 0.00 | 0.00 | 0.00 | 29 | 1009.1 |
| 20260904155705 | 68 | 248 | 3.0 | 15.0 | 0.00 | 0.00 | 0.00 | 29 | 1009.0 |
| 20260904155606 | 68 | 232 | 5.0 | 15.0 | 0.00 | 0.00 | 0.00 | 30 | 1009.1 |
| 20260904155505 | 67 | 225 | 8.0 | 15.0 | 0.00 | 0.00 | 0.00 | 29 | 1009.1 |
| 20260904155405 | 67 | 227 | 6.0 | 15.0 | 0.00 | 0.00 | 0.00 | 30 | 1009.2 |
| 20260904155307 | 67 | 226 | 6.0 | 15.0 | 0.00 | 0.00 | 0.00 | 30 | 1009.2 |
| 20260904154705 | 67 | 222 | 8.0 | 11.0 | 0.00 | 0.00 | 0.00 | 30 | 1009.2 |
| 20260904154605 | 67 | 223 | 8.0 | 11.0 | 0.00 | 0.00 | 0.00 | 30 | 1009.2 |
| 20260904154504 | 67 | 237 | 8.0 | 13.0 | 0.00 | 0.00 | 0.00 | 30 | 1009.2 |
| 20260904154405 | 67 | 237 | 5.0 | 13.0 | 0.00 | 0.00 | 0.00 | 31 | 1009.2 |
| 20260904154305 | 67 | 232 | 7.0 | 13.0 | 0.00 | 0.00 | 0.00 | 31 | 1009.2 |
| 20260904154206 | 66 | 233 | 6.0 | 13.0 | 0.00 | 0.00 | 0.00 | 31 | 1009.2 |
| 20260904154105 | 66 | 227 | 7.0 | 13.0 | 0.00 | 0.00 | 0.00 | 31 | 1009.2 |
| 20260904154005 | 66 | 222 | 6.0 | 13.0 | 0.00 | 0.00 | 0.00 | 32 | 1009.2 |
| 20260904153904 | 66 | 222 | 5.0 | 13.0 | 0.00 | 0.00 | 0.00 | 32 | 1009.1 |
| 20260904153805 | 66 | 216 | 8.0 | 13.0 | 0.00 | 0.00 | 0.00 | 32 | 1009.1 |
| 20260904153705 | 66 | 218 | 8.0 | 13.0 | 0.00 | 0.00 | 0.00 | 32 | 1009.1 |
| 20260904153605 | 65 | 219 | 9.0 | 13.0 | 0.00 | 0.00 | 0.00 | 33 | 1009.1 |
| 20260904153505 | 65 | 216 | 8.0 | 13.0 | 0.00 | 0.00 | 0.00 | 33 | 1009.1 |
| 20260904153405 | 65 | 215 | 5.0 | 13.0 | 0.00 | 0.00 | 0.00 | 33 | 1009.2 |
| 20260904153305 | 65 | 218 | 5.0 | 15.0 | 0.00 | 0.00 | 0.00 | 33 | 1009.1 |
| 20260904153205 | 65 | 221 | 10.0 | 15.0 | 0.00 | 0.00 | 0.00 | 33 | 1009.3 |
| 20260904153105 | 65 | 223 | 8.0 | 15.0 | 0.00 | 0.00 | 0.00 | 33 | 1009.2 |
| 20260904153005 | 65 | 223 | 8.0 | 15.0 | 0.00 | 0.00 | 0.00 | 33 | 1009.2 |
| 20260904152905 | 65 | 223 | 9.0 | 15.0 | 0.00 | 0.00 | 0.00 | 33 | 1009.2 |
| 20260904152805 | 65 | 226 | 8.0 | 15.0 | 0.00 | 0.00 | 0.00 | 33 | 1009.3 |
| 20260904152705 | 65 | 226 | 8.0 | 15.0 | 0.00 | 0.00 | 0.00 | 33 | 1009.3 |
| 20260904152605 | 65 | 230 | 9.0 | 15.0 | 0.00 | 0.00 | 0.00 | 33 | 1009.3 |
| 20260904152504 | 65 | 230 | 8.0 | 15.0 | 0.00 | 0.00 | 0.00 | 33 | 1009.2 |
| 20260904152405 | 65 | 233 | 9.0 | 15.0 | 0.00 | 0.00 | 0.00 | 34 | 1009.2 |
| 20260904152306 | 65 | 234 | 10.0 | 15.0 | 0.00 | 0.00 | 0.00 | 35 | 1009.3 |
| 20260904152205 | 65 | 238 | 8.0 | 15.0 | 0.00 | 0.00 | 0.00 | 35 | 1009.2 |
| 20260904152104 | 64 | 235 | 7.0 | 15.0 | 0.00 | 0.00 | 0.00 | 35 | 1009.3 |
| 20260904152005 | 64 | 232 | 5.0 | 15.0 | 0.00 | 0.00 | 0.00 | 35 | 1009.3 |
| 20260904151905 | 64 | 230 | 7.0 | 15.0 | 0.00 | 0.00 | 0.00 | 35 | 1009.3 |
| 20260904151805 | 64 | 234 | 7.0 | 15.0 | 0.00 | 0.00 | 0.00 | 34 | 1009.2 |
| 20260904151705 | 64 | 230 | 8.0 | 15.0 | 0.00 | 0.00 | 0.00 | 34 | 1009.3 |
| 20260904151605 | 64 | 227 | 9.0 | 15.0 | 0.00 | 0.00 | 0.00 | 34 | 1009.3 |
| 20260904151404 | 64 | 224 | 11.0 | 15.0 | 0.00 | 0.00 | 0.00 | 34 | 1009.3 |
| 20260904151305 | 64 | 222 | 8.0 | 15.0 | 0.00 | 0.00 | 0.00 | 34 | 1009.2 |
| 20260904151205 | 64 | 221 | 10.0 | 15.0 | 0.00 | 0.00 | 0.00 | 35 | 1009.2 |
| 20260904151105 | 64 | 222 | 8.0 | 15.0 | 0.00 | 0.00 | 0.00 | 35 | 1009.3 |
| 20260904151005 | 64 | 223 | 8.0 | 15.0 | 0.00 | 0.00 | 0.00 | 35 | 1009.3 |
| 20260904150905 | 64 | 227 | 8.0 | 15.0 | 0.00 | 0.00 | 0.00 | 34 | 1009.2 |
| 20260904150805 | 64 | 225 | 9.0 | 15.0 | 0.00 | 0.00 | 0.00 | 34 | 1009.3 |
| 20260904150705 | 64 | 238 | 11.0 | 15.0 | 0.00 | 0.00 | 0.00 | 34 | 1009.3 |
| 20260904150605 | 64 | 247 | 9.0 | 13.0 | 0.00 | 0.00 | 0.00 | 35 | 1009.2 |
| 20260904150504 | 64 | 251 | 8.0 | 12.0 | 0.00 | 0.00 | 0.00 | 35 | 1009.2 |
| 20260904150405 | 64 | 250 | 8.0 | 12.0 | 0.00 | 0.00 | 0.00 | 35 | 1009.2 |
| 20260904145905 | 64 | 237 | 8.0 | 11.0 | 0.00 | 0.00 | 0.00 | 35 | 1009.3 |
| 20260904145805 | 64 | 235 | 8.0 | 11.0 | 0.00 | 0.00 | 0.00 | 35 | 1009.2 |
| 20260904145705 | 64 | 229 | 7.0 | 11.0 | 0.00 | 0.00 | 0.00 | 35 | 1009.2 |
| 20260904145605 | 64 | 229 | 4.0 | 11.0 | 0.00 | 0.00 | 0.00 | 35 | 1009.4 |
| 20260904145504 | 64 | 229 | 4.0 | 11.0 | 0.00 | 0.00 | 0.00 | 35 | 1009.2 |
| 20260904145405 | 64 | 225 | 7.0 | 11.0 | 0.00 | 0.00 | 0.00 | 35 | 1009.3 |
| 20260904144805 | 64 | 215 | 4.0 | 14.0 | 0.00 | 0.00 | 0.00 | 35 | 1009.2 |
| 20260904144705 | 64 | 219 | 1.0 | 14.0 | 0.00 | 0.00 | 0.00 | 35 | 1009.3 |
| 20260904144604 | 64 | 219 | 4.0 | 14.0 | 0.00 | 0.00 | 0.00 | 35 | 1009.2 |
| 20260904144505 | 64 | 218 | 4.0 | 14.0 | 0.00 | 0.00 | 0.00 | 35 | 1009.3 |
| 20260904144405 | 64 | 224 | 4.0 | 14.0 | 0.00 | 0.00 | 0.00 | 35 | 1009.2 |
| 20260904144304 | 64 | 224 | 4.0 | 14.0 | 0.00 | 0.00 | 0.00 | 34 | 1009.2 |
| 20260904144205 | 64 | 226 | 5.0 | 14.0 | 0.00 | 0.00 | 0.00 | 34 | 1009.2 |